GFSGL_850_thetae_087.txt.gz
Theta_e
307 306 305 304 303 302 302 302 301 301 299 299 299 299 298 297 296 296 296 296 295 294 293 292 292 292 292 292 293 293 294 294 295 294 295 294 294 295 295 296 295 296 296
305 304 303 302 301 301 301 300 299 299 299 299 298 297 296 296 296 296 295 295 294 293 292 292 292 292 292 294 294 294 294 294 294 294 294 295 295 295 295 295 295 295 296
304 303 302 300 300 300 299 299 299 298 298 296 296 296 296 295 295 295 295 294 292 292 291 291 292 292 294 294 294 294 294 294 295 295 295 295 296 295 295 295 295 296 297
302 301 300 299 299 298 298 298 297 297 296 296 296 296 296 296 295 295 294 293 292 291 291 291 292 293 294 294 294 295 296 296 296 296 296 296 296 296 296 296 296 296 297
300 299 299 298 298 298 297 297 296 296 297 297 296 296 296 295 295 294 293 293 293 292 292 293 294 294 294 295 297 298 296 296 297 297 298 297 297 297 296 296 297 297 298
299 298 298 298 298 298 298 297 297 297 297 297 296 296 295 295 294 293 291 292 293 294 294 294 294 294 295 294 295 297 297 297 297 297 297 295 295 295 296 296 297 296 296
298 298 298 298 298 298 298 297 297 297 297 296 296 295 295 294 293 290 292 293 293 294 294 294 293 293 294 294 295 294 294 295 295 296 296 296 297 295 295 295 295 296 297
298 298 297 297 297 297 297 297 297 296 296 296 295 294 294 292 289 291 292 294 293 293 293 293 294 294 294 294 294 295 295 296 295 295 295 295 295 295 296 296 296 296 296
298 298 298 298 297 297 297 297 296 296 296 295 294 293 291 289 291 292 292 293 293 293 293 293 294 294 294 294 295 297 296 295 295 296 295 296 295 296 296 296 297 295 296
298 298 298 297 297 297 296 296 296 295 294 294 292 289 289 291 291 291 292 293 293 293 293 294 295 294 295 295 295 295 295 295 295 294 294 294 294 293 294 295 296 296 296
298 298 297 297 297 296 296 296 295 294 293 291 289 289 291 291 291 291 292 292 293 293 295 293 294 293 293 294 295 295 294 294 294 293 293 292 294 296 295 296 295 295 295
297 298 298 297 296 296 296 295 294 293 290 289 289 290 291 292 291 291 291 293 293 294 293 293 292 292 293 294 293 292 292 293 293 292 291 292 294 295 295 296 296 296 296
297 297 296 296 296 295 295 294 293 290 288 289 290 290 290 291 290 290 290 292 292 293 292 292 292 293 292 291 291 290 291 292 291 289 290 292 294 295 295 295 295 296 296
297 297 295 295 295 295 294 293 290 288 289 290 290 290 291 290 290 290 292 293 292 292 292 293 291 290 290 289 289 289 289 289 288 289 290 291 292 293 294 295 294 295 295
295 295 295 294 294 294 292 289 288 288 289 290 290 290 290 289 290 291 292 292 292 292 291 290 289 289 288 289 289 289 288 288 288 288 289 289 290 291 292 293 293 295 296
295 294 294 293 292 289 288 288 289 289 289 289 289 289 289 289 290 291 291 291 291 290 290 289 288 288 288 288 288 289 288 287 287 288 288 288 290 290 292 293 293 294 296
294 293 292 289 288 287 288 289 289 289 288 288 287 288 288 289 289 289 290 290 289 288 288 288 288 288 289 288 288 288 288 288 287 287 288 288 290 292 293 294 295 296 296
293 291 289 287 287 287 289 288 288 288 287 287 287 287 287 288 288 289 288 288 288 288 288 288 288 288 288 287 288 288 288 288 288 288 288 290 292 293 294 296 296 296 296
291 290 287 287 287 288 288 288 287 286 286 286 286 286 287 288 288 288 288 287 287 287 288 287 287 287 287 287 288 288 288 288 288 289 289 292 294 294 296 297 298 296 295
291 287 286 287 287 289 288 287 286 286 286 286 286 286 287 288 287 287 287 287 287 287 287 287 287 287 287 287 287 287 288 288 288 289 292 294 296 296 297 298 298 298 298
287 286 286 286 288 289 287 286 286 286 286 286 286 286 287 287 286 286 287 287 287 287 288 287 287 287 287 287 287 288 288 288 288 290 294 296 296 297 298 299 299 298 298
286 286 286 286 288 288 287 286 286 286 285 285 286 286 286 286 286 286 287 287 287 288 288 288 287 287 288 287 287 288 288 289 289 293 296 296 296 298 299 300 299 299 298
286 285 285 286 287 287 288 286 285 285 285 286 286 286 286 286 286 286 287 287 287 288 288 288 288 288 288 288 289 289 288 289 291 294 296 296 297 299 300 300 298 299 298
285 285 285 285 286 288 287 286 285 285 285 285 285 285 286 286 286 286 287 287 287 287 288 288 288 288 289 289 291 291 290 291 293 296 296 296 297 299 301 301 300 300 299
285 285 285 285 286 287 286 285 285 284 284 285 285 285 286 286 286 286 287 287 287 287 288 288 288 289 289 290 292 293 291 293 295 296 296 296 297 299 300 301 301 301 300
285 285 285 285 287 286 285 285 284 284 284 284 285 285 285 286 286 286 287 287 287 287 288 288 289 289 290 291 293 294 292 293 296 297 296 296 297 299 300 301 301 301 299

GFSGL_850_thetae_090.txt.gz
Theta_e
309 309 308 306 305 304 303 302 302 301 300 299 299 299 298 298 297 297 297 296 296 296 296 296 295 295 295 295 295 295 295 295 295 295 296 296 296 296 296 296 297 297 297
307 305 305 304 303 302 301 301 300 299 299 299 298 298 297 297 296 296 296 296 296 296 295 295 295 294 294 295 295 295 296 296 296 296 296 296 297 297 297 297 297 297 297
305 304 303 302 301 300 300 299 299 298 298 297 297 296 297 296 296 296 296 295 295 295 294 294 294 294 294 294 295 295 296 295 295 296 296 297 297 297 297 297 297 297 297
304 302 301 300 299 299 298 298 297 297 297 297 297 297 296 296 295 295 295 294 295 295 295 295 294 294 294 295 295 295 296 296 296 296 296 296 297 297 297 297 297 297 297
302 300 299 299 298 298 297 297 297 297 297 297 296 296 296 295 295 294 295 295 295 295 294 294 295 295 295 296 296 296 297 297 297 297 297 297 297 297 297 297 296 297 298
300 299 298 298 298 298 298 298 297 297 297 297 297 296 295 295 294 295 294 294 293 294 295 294 294 295 295 295 296 297 297 297 297 297 297 297 297 296 296 296 296 296 296
299 298 298 298 298 298 298 297 297 297 297 297 296 296 295 294 295 293 292 293 294 294 294 294 294 294 294 295 295 296 296 296 297 296 297 297 297 297 297 296 297 296 297
298 298 297 298 298 297 297 297 297 297 296 296 295 294 294 294 292 290 292 294 294 294 293 294 294 294 294 295 296 296 296 296 296 297 297 297 297 297 297 297 297 297 297
299 299 299 298 297 297 297 297 296 296 296 295 294 294 293 291 291 291 292 293 293 293 294 294 294 294 295 294 296 296 296 296 296 297 297 296 296 297 297 297 297 297 297
299 298 298 297 297 297 297 296 296 295 295 294 294 292 291 291 292 292 292 293 293 293 294 295 294 294 294 295 295 296 296 295 296 295 295 295 295 295 295 296 295 295 295
298 298 297 297 297 296 296 296 295 294 294 293 291 291 292 292 292 292 293 293 293 293 293 294 293 293 293 294 295 295 296 295 294 294 294 294 294 294 293 296 296 296 296
297 297 297 297 296 296 295 295 294 293 293 291 291 291 291 292 291 291 292 293 293 293 293 293 293 294 294 293 293 293 293 293 292 292 293 293 292 291 293 295 295 296 296
297 297 297 296 295 295 294 294 293 292 291 291 291 291 291 291 291 291 291 292 292 293 293 292 292 293 292 292 291 291 291 290 291 291 291 291 290 292 293 294 295 295 295
297 296 295 295 295 294 293 293 291 290 291 290 290 291 290 290 290 291 291 293 292 293 293 292 292 291 290 291 290 290 289 290 289 290 290 290 290 291 291 293 293 294 296
296 296 295 294 294 292 291 290 289 290 290 290 290 289 289 289 290 291 292 292 292 291 292 291 291 290 290 290 290 290 289 289 289 289 289 289 289 290 290 291 292 292 294
295 294 293 292 291 290 290 290 290 289 289 290 289 289 289 289 290 290 291 291 290 291 290 290 289 289 289 289 289 289 289 289 289 288 288 289 289 289 290 291 292 293 293
293 293 292 290 290 289 289 290 289 288 288 288 288 289 289 288 289 289 290 289 289 289 289 289 289 289 289 288 288 288 289 289 289 288 288 288 289 290 290 292 293 294 294
292 291 290 290 289 289 289 289 289 288 287 287 287 287 287 288 288 289 289 288 289 288 288 288 288 288 288 288 288 288 288 288 288 288 289 289 290 290 292 294 295 295 294
291 289 288 289 288 288 288 289 288 287 287 287 287 287 287 287 288 289 288 288 288 288 288 288 288 288 288 288 288 288 288 288 288 288 289 290 290 293 295 295 296 296 293
288 287 286 287 288 288 288 288 287 287 287 286 286 287 287 287 287 287 287 287 287 287 288 288 288 288 287 287 287 288 288 288 288 288 289 291 293 295 295 296 296 295 295
286 286 286 287 288 287 287 288 287 286 286 286 286 287 288 287 286 287 287 287 287 287 288 288 288 287 287 287 287 288 288 288 288 289 290 292 294 295 296 297 298 297 298
286 286 286 286 286 287 287 287 286 285 286 286 286 286 287 287 287 287 287 287 287 287 287 287 288 288 288 288 287 288 288 288 288 289 291 294 296 296 297 299 298 298 298
286 285 286 286 286 287 287 286 286 285 285 285 285 286 286 286 287 287 287 287 287 287 287 287 287 288 288 288 288 288 289 289 289 290 293 295 296 296 297 299 299 299 299
285 285 285 286 287 287 285 286 285 285 285 285 286 285 286 286 287 287 287 287 287 287 287 287 288 288 288 288 289 290 291 290 290 292 295 296 296 296 298 299 300 299 299
285 285 285 286 286 285 284 285 285 285 285 285 286 285 286 286 286 287 287 287 287 287 287 287 288 288 288 289 290 291 292 291 292 295 296 296 296 296 299 299 299 299 299
285 285 285 285 285 285 285 285 285 285 285 285 285 286 286 286 286 287 287 287 287 287 288 288 288 289 289 290 291 292 293 292 294 296 296 296 296 297 299 299 300 299 299

GFSGL_850_thetae_093.txt.gz
Theta_e
310 310 309 308 308 306 305 304 304 303 302 301 300 299 300 299 299 298 298 298 298 298 297 297 297 297 297 296 296 296 296 296 297 296 297 297 297 297 297 297 297 297 297
308 307 307 306 305 304 304 303 302 302 301 299 300 299 298 298 298 298 298 297 297 297 297 297 297 296 296 296 296 296 296 296 296 297 297 297 296 297 297 298 298 298 298
306 306 305 304 304 304 303 302 300 300 300 299 298 298 298 298 298 297 297 297 297 297 296 296 296 296 296 296 295 295 295 295 296 296 296 295 296 297 297 297 297 297 297
305 304 304 304 303 302 300 299 299 299 298 298 298 298 298 297 297 297 297 296 296 296 297 297 297 296 296 295 295 295 295 296 296 296 296 297 297 296 297 297 297 297 297
304 303 303 302 300 299 299 299 299 298 298 298 298 298 298 298 297 297 296 296 296 296 296 295 295 295 296 297 296 296 297 296 296 296 297 296 297 297 297 297 297 297 297
303 302 301 299 300 300 300 299 299 299 298 298 298 298 298 297 297 296 296 296 296 294 294 295 295 295 294 295 296 297 297 297 297 297 297 297 297 297 296 296 296 296 296
302 301 300 300 300 299 299 299 299 299 299 298 298 298 297 297 296 296 296 294 293 294 294 294 294 294 295 295 295 296 296 297 298 297 297 297 297 296 297 297 297 297 296
300 300 300 300 300 299 299 299 299 298 298 298 297 297 297 296 296 295 293 293 293 293 294 294 294 294 295 295 295 295 295 296 296 296 296 296 296 297 297 297 298 298 297
300 300 300 300 299 299 299 299 298 298 297 297 297 296 296 295 293 293 293 293 293 293 293 293 294 294 295 295 295 295 296 296 296 296 296 297 298 297 297 297 298 297 297
300 300 299 299 299 298 298 298 297 297 297 296 296 295 294 292 293 293 293 293 293 293 293 294 294 294 295 295 295 295 294 295 295 295 295 295 296 295 296 296 295 295 295
299 299 299 299 298 298 297 297 297 297 296 295 295 293 292 293 293 293 293 293 293 293 293 293 293 294 294 295 295 295 294 294 295 296 294 294 294 294 294 294 294 294 294
299 299 299 298 298 297 297 296 296 296 295 294 293 292 292 292 292 292 292 293 293 294 293 293 293 293 294 295 295 294 294 294 294 293 293 293 293 293 293 292 292 295 295
299 299 298 297 297 296 296 296 295 295 292 292 292 292 291 291 291 291 292 292 293 293 293 294 294 293 293 293 292 292 293 292 291 291 291 291 292 291 291 291 292 293 293
298 298 297 297 296 295 295 294 293 291 291 292 291 291 291 290 290 290 290 291 291 292 292 292 292 292 292 292 291 290 290 290 290 290 290 290 290 290 290 290 292 293 294
298 297 296 295 294 294 292 292 291 291 291 290 290 290 289 289 289 290 291 291 291 292 291 291 290 290 290 290 290 290 290 290 290 290 290 289 289 289 289 290 291 292 292
296 295 295 294 293 292 291 291 291 291 289 289 290 290 289 289 289 290 290 291 291 290 290 290 289 289 289 290 290 289 290 289 290 289 290 289 288 289 289 290 291 292 292
294 294 293 292 291 291 291 291 290 290 288 288 289 289 288 288 289 289 290 290 290 290 289 289 289 289 289 289 289 289 289 289 289 289 289 289 289 289 289 290 292 292 293
293 293 291 291 291 290 290 290 289 288 288 287 287 288 288 289 289 289 289 289 288 288 288 289 289 289 289 289 289 288 288 288 288 289 289 289 289 289 290 291 292 293 294
293 291 288 289 289 289 290 288 288 288 287 287 287 287 287 288 288 288 288 288 288 288 288 288 288 288 288 288 288 288 288 288 288 289 289 289 289 289 291 292 295 296 294
290 289 288 288 289 289 288 288 288 288 287 287 286 286 287 288 288 287 287 288 288 288 288 288 288 288 288 288 288 288 288 288 288 288 288 288 289 291 292 293 295 294 294
289 289 288 288 289 288 288 288 288 287 286 286 286 286 287 288 287 287 287 288 287 287 287 287 287 287 288 288 287 287 288 288 288 288 288 288 290 291 292 294 295 295 296
288 288 288 288 288 288 288 287 287 286 285 285 285 285 286 286 286 287 287 288 287 287 287 287 287 287 287 287 287 287 288 288 288 288 289 289 290 292 294 295 296 297 298
287 287 287 288 288 287 286 285 286 285 285 285 285 286 286 286 287 287 287 287 287 288 288 288 287 287 287 288 288 287 287 288 289 289 289 290 292 294 294 294 297 298 299
286 287 287 288 287 286 284 285 285 285 285 285 285 286 286 287 287 287 287 287 287 287 288 287 287 287 287 288 288 288 288 290 290 289 289 292 295 295 295 296 297 298 298
286 286 287 288 286 285 285 285 285 285 285 285 285 286 286 287 287 287 287 287 287 287 287 288 288 288 288 288 288 289 290 291 290 290 292 294 296 296 296 296 298 298 299
286 286 287 286 285 285 284 285 285 285 285 285 285 286 286 286 287 287 287 287 287 288 288 289 289 289 289 289 289 290 291 292 291 292 295 296 296 296 298 299 299 300 299

GFSGL_850_thetae_096.txt.gz
Theta_e
311 311 311 311 310 309 308 307 306 305 304 303 302 301 299 299 299 298 298 298 298 298 297 297 297 297 297 297 297 296 296 296 296 296 296 296 296 296 296 297 297 297 298
311 310 309 308 307 306 305 304 304 303 302 301 299 299 298 298 298 298 298 298 297 297 297 297 297 297 296 296 296 296 296 295 296 296 295 296 296 297 297 295 295 296 297
308 307 307 306 305 304 304 304 303 301 300 299 299 298 298 298 298 297 297 297 297 297 296 296 296 296 296 297 297 296 296 296 295 295 295 295 296 296 296 296 297 297 297
306 306 305 304 304 304 302 301 299 299 299 298 298 298 298 298 297 297 297 297 297 296 296 296 296 297 297 296 295 295 296 296 296 296 296 296 296 296 296 296 296 296 296
305 304 304 303 302 300 299 299 299 299 298 298 298 298 298 298 298 297 297 297 296 296 296 296 295 294 296 297 298 297 296 296 296 296 296 297 295 296 297 296 297 297 297
303 303 303 300 300 299 299 298 299 299 298 298 298 298 298 298 298 298 298 297 297 296 295 293 293 294 293 294 296 296 297 297 297 297 297 296 296 298 296 296 296 296 296
302 302 301 300 299 299 299 299 299 299 299 298 298 298 298 297 297 297 298 297 295 294 293 293 293 293 294 294 294 295 296 295 296 297 297 297 297 296 296 296 297 297 296
301 300 300 300 300 299 299 299 298 298 298 298 298 297 297 297 296 297 296 294 293 293 293 293 293 293 293 294 295 295 295 295 295 295 296 296 296 296 297 297 297 297 297
300 300 300 300 299 299 298 298 298 298 298 297 297 297 296 295 295 294 294 294 293 293 293 293 293 293 294 295 296 296 296 295 295 295 296 296 297 298 297 297 297 297 296
300 300 299 299 298 298 298 298 297 297 297 297 296 295 295 294 293 293 294 293 293 292 292 292 293 294 295 295 296 296 295 295 294 294 294 295 296 296 295 297 296 296 295
299 298 298 299 298 298 297 297 296 296 296 296 295 295 294 292 292 292 293 293 292 292 293 293 293 293 294 295 295 296 296 295 296 295 294 294 294 294 294 294 293 294 294
298 298 299 298 298 297 297 296 296 296 295 295 294 292 292 292 292 292 293 292 292 294 294 293 293 293 295 295 295 294 295 295 294 293 293 292 292 292 292 293 293 294 293
298 298 298 298 297 296 296 295 295 294 293 292 291 292 291 290 290 290 290 291 292 292 292 292 293 293 293 292 292 293 293 292 291 290 290 290 290 290 291 291 290 291 291
298 298 297 297 296 295 295 293 292 292 291 291 290 290 290 290 289 289 289 290 290 291 291 291 292 291 291 291 290 290 290 290 290 291 291 290 290 289 289 289 289 290 290
297 297 296 295 295 293 292 291 291 291 291 291 290 289 289 289 289 290 290 290 290 291 292 291 290 290 290 290 290 290 290 290 289 290 290 290 290 289 289 289 289 289 290
295 295 294 294 292 292 291 291 290 291 290 289 289 289 289 289 289 290 290 290 290 291 291 290 289 289 289 289 289 289 289 289 289 289 289 289 289 289 289 288 289 289 290
294 293 293 291 291 291 290 289 290 289 289 288 288 288 288 289 289 289 289 290 290 289 288 288 288 288 289 289 289 289 289 289 289 288 289 289 289 289 289 289 289 290 291
292 293 292 289 288 289 289 290 289 288 288 287 287 287 287 288 289 289 289 289 288 288 288 288 288 288 288 288 288 289 288 288 288 288 288 288 289 289 289 289 289 290 291
291 291 289 288 288 289 289 289 288 287 287 286 286 286 286 286 287 288 288 287 287 288 288 288 288 288 288 288 288 288 288 287 288 288 288 288 289 289 289 289 290 292 292
289 288 289 288 288 288 288 288 287 287 286 285 285 285 286 287 287 286 287 287 287 288 288 287 287 287 287 287 287 288 288 287 287 288 288 288 288 288 289 290 291 292 293
287 288 288 287 288 288 288 287 287 286 285 285 285 285 287 287 286 287 287 287 287 287 287 287 287 287 287 287 287 287 287 287 287 288 288 288 288 288 289 290 291 293 295
286 287 287 288 288 288 287 286 286 285 285 285 285 285 286 286 287 287 287 287 287 287 287 287 287 287 287 287 287 287 287 287 287 288 288 288 288 289 290 291 292 295 296
286 286 287 287 288 288 286 285 284 284 285 285 285 285 286 286 286 287 287 287 287 287 287 287 287 287 287 287 287 287 287 287 287 288 288 288 289 290 291 293 294 295 296
286 286 287 287 287 286 284 284 284 285 285 285 285 286 286 286 287 287 287 287 287 287 288 288 288 288 288 288 288 288 288 288 288 289 288 289 290 292 294 295 295 296 298
286 286 287 286 286 285 284 285 285 285 285 285 286 286 286 286 287 287 287 287 287 288 288 289 289 289 289 288 288 288 288 289 290 289 289 290 293 295 295 295 296 298 298
286 286 286 286 286 286 285 286 286 285 285 286 286 286 287 287 287 287 287 287 288 291 293 293 293 291 290 290 290 289 290 291 290 290 291 295 296 296 296 297 299 298 299

GFSGL_850_thetae_099.txt.gz
Theta_e
317 316 314 312 312 312 311 311 311 310 309 307 304 303 301 300 299 298 298 298 297 297 297 297 297 297 297 297 297 296 296 296 296 296 296 295 295 295 295 295 296 297 296
313 311 311 311 310 310 308 308 306 305 304 303 301 300 299 298 298 297 297 297 297 297 297 297 297 296 296 296 296 296 296 296 296 296 296 295 295 295 295 295 296 295 295
310 310 309 307 306 306 305 304 304 303 301 300 299 299 298 297 297 297 297 297 296 296 296 296 296 296 296 296 296 297 297 296 295 296 295 295 295 295 296 296 296 296 296
308 307 306 305 305 304 304 303 302 300 299 299 299 298 298 298 298 297 297 297 297 297 296 296 296 296 295 295 294 295 296 296 296 296 296 296 296 296 295 296 296 296 296
306 305 304 304 304 303 301 299 299 299 298 298 298 298 297 297 298 298 298 298 298 297 297 296 296 295 295 295 296 296 295 295 295 295 296 296 295 296 296 296 296 295 297
304 304 303 303 301 299 299 299 298 298 298 297 297 298 298 298 298 298 298 298 297 297 296 295 294 293 292 294 295 296 296 297 296 297 297 296 296 297 296 297 297 297 295
303 302 301 300 299 299 299 298 298 298 298 298 298 298 298 298 297 297 298 297 297 296 294 293 293 292 293 293 293 294 295 295 295 296 296 295 295 295 295 296 296 296 296
301 300 300 300 299 299 299 298 298 298 298 298 297 297 297 296 296 296 296 295 294 294 293 293 292 292 293 293 294 295 295 295 296 295 295 295 295 296 297 297 296 296 296
300 300 300 300 299 299 298 298 298 298 297 297 296 296 296 295 295 295 294 294 294 293 292 292 292 292 293 294 295 296 296 295 295 295 295 295 296 296 296 297 297 297 296
300 300 299 298 298 298 298 298 297 296 296 295 296 295 295 294 294 292 293 293 293 293 292 292 293 293 293 295 295 295 295 296 296 294 295 295 295 294 294 294 295 296 296
300 297 296 298 298 298 298 297 296 296 296 295 295 294 294 292 292 292 293 292 293 292 292 292 292 293 293 294 295 296 295 295 296 295 295 294 293 293 293 293 293 293 293
296 297 298 298 298 297 296 296 295 295 295 294 293 291 290 290 291 291 292 292 292 292 292 292 292 292 294 294 294 293 293 294 293 293 292 291 291 290 290 290 291 292 293
297 298 298 297 297 296 296 295 294 293 292 291 290 290 290 289 289 290 290 290 291 291 291 291 292 292 293 292 291 292 292 291 290 290 290 290 291 290 290 290 289 290 290
298 298 297 297 296 295 294 292 291 291 291 291 291 290 289 289 289 289 289 290 290 290 290 291 293 293 291 290 290 290 290 290 290 290 290 289 290 290 289 289 289 289 289
296 296 295 295 294 293 292 291 291 290 291 290 289 289 289 289 289 289 290 290 291 291 292 292 290 290 289 289 289 289 290 289 289 289 289 289 289 289 289 289 289 288 289
294 294 293 293 291 290 290 289 289 289 289 288 289 289 289 288 289 289 289 290 290 291 290 289 288 288 288 289 289 289 289 289 289 289 289 288 288 289 289 289 289 288 289
293 292 293 291 289 287 288 289 289 289 289 287 288 288 288 288 288 288 289 289 290 289 288 288 288 288 288 288 288 288 288 288 288 288 288 288 288 289 289 289 289 289 289
291 291 290 289 288 287 288 289 288 288 287 286 285 285 286 287 287 288 288 288 287 287 287 288 288 287 287 288 288 288 288 288 288 288 288 288 288 288 288 289 289 289 289
289 289 288 288 287 288 288 288 287 286 286 285 285 285 285 286 287 287 287 287 287 287 287 287 287 287 287 287 287 287 288 288 288 288 288 288 288 288 289 289 288 289 290
288 287 287 287 288 288 288 287 286 285 284 284 285 285 286 287 287 286 287 287 287 287 287 287 287 287 287 287 287 287 287 287 287 287 287 288 288 288 288 288 289 289 291
287 287 287 287 288 288 288 287 284 284 284 285 285 285 286 287 286 286 287 287 287 287 287 287 287 287 287 287 287 287 287 287 287 287 287 287 288 288 288 288 289 290 291
287 287 287 287 287 287 286 284 284 284 285 285 285 286 286 286 287 287 287 287 287 287 287 287 287 287 287 287 287 287 287 287 287 287 287 288 288 288 288 288 289 290 291
287 287 287 287 286 286 285 285 285 285 285 285 286 286 286 287 287 287 287 287 287 288 288 289 289 289 288 288 287 287 287 287 287 287 287 288 288 288 288 289 290 291 293
286 286 287 286 286 286 286 286 286 285 285 285 286 286 287 287 287 287 287 287 288 289 290 292 292 291 290 288 288 288 288 288 288 288 288 288 288 289 289 291 292 294 295
287 286 286 286 287 287 287 286 284 285 286 286 286 287 287 287 287 287 287 288 289 291 291 292 293 292 291 290 289 289 288 288 288 289 289 288 289 290 292 293 294 296 297
286 286 286 287 287 287 286 286 285 286 285 287 287 287 287 287 287 287 288 289 291 291 292 293 294 293 292 291 290 290 290 290 290 289 289 292 294 294 295 296 297 297 297

GFSGL_850_thetae_102.txt.gz
Theta_e
320 317 315 313 312 312 312 312 312 311 311 311 310 308 304 303 302 300 299 298 298 297 296 296 296 297 296 296 296 296 296 296 296 296 296 296 296 296 295 295 295 294 295
318 315 312 312 312 312 311 311 310 309 308 306 303 302 301 300 299 298 297 297 296 296 296 296 296 296 296 295 295 295 295 296 296 296 296 296 295 295 295 295 295 295 295
314 313 311 311 310 309 308 307 305 304 303 302 300 299 299 298 297 297 297 297 296 296 296 296 296 296 296 296 295 295 295 295 295 295 295 295 295 295 295 295 296 295 295
310 310 309 307 306 305 304 304 303 302 300 299 299 298 298 297 297 297 297 297 297 297 297 297 297 297 296 295 295 294 295 296 296 295 295 294 294 295 295 296 296 296 296
307 307 306 305 304 304 303 301 300 299 298 298 298 298 297 297 297 297 297 297 297 297 297 297 296 295 295 295 295 294 294 294 295 296 296 296 296 296 296 295 296 296 297
305 304 304 303 302 300 299 299 298 298 298 297 297 297 297 297 298 298 297 298 298 298 297 296 295 294 293 293 294 295 295 296 296 296 297 295 295 295 296 295 295 295 295
303 303 302 301 300 299 299 298 298 298 297 297 297 298 298 297 297 297 297 297 297 297 296 295 294 292 292 292 292 293 293 294 295 295 296 296 296 295 295 295 296 296 296
302 301 300 300 299 299 298 298 297 297 297 297 296 296 296 296 295 295 296 296 295 294 294 293 293 292 292 292 292 293 294 294 295 296 295 295 295 295 295 295 297 296 297
300 300 299 299 299 299 298 297 297 297 296 295 295 295 295 295 294 294 294 294 292 292 292 292 292 292 292 293 294 295 295 294 295 295 296 296 296 297 297 297 296 295 296
300 299 299 299 296 296 297 297 297 296 296 296 295 295 294 294 294 293 292 292 293 292 292 292 292 292 292 294 294 294 294 294 296 295 296 296 295 295 295 294 293 293 293
299 298 296 296 297 297 297 297 296 296 295 295 294 294 293 291 290 290 290 292 292 291 291 292 292 291 292 293 295 296 295 294 294 293 293 293 293 292 292 291 291 292 293
297 296 297 298 298 297 297 296 295 294 294 293 291 291 290 290 290 290 291 292 291 291 291 291 290 291 292 294 294 294 293 293 293 293 292 291 291 290 290 290 290 290 290
296 296 297 297 297 296 296 295 293 292 291 291 290 290 289 290 289 289 289 290 291 290 290 290 292 292 292 293 292 291 292 292 291 290 290 290 290 290 290 290 289 289 289
296 297 297 296 296 295 294 292 291 291 290 289 289 288 289 289 289 288 289 289 289 290 290 290 292 292 290 290 290 290 290 290 290 290 290 289 289 289 289 289 289 289 288
296 295 295 294 293 292 290 290 290 289 289 289 289 289 289 289 288 289 290 290 290 290 291 291 291 289 289 289 289 289 289 289 289 289 289 289 288 289 288 289 289 289 288
294 293 293 293 291 289 288 288 288 289 289 289 289 288 288 288 289 289 289 289 289 290 290 290 289 288 288 288 288 288 288 288 289 289 289 288 288 288 288 288 289 289 289
293 292 291 289 288 287 287 288 288 289 289 287 286 286 286 287 288 288 288 288 288 288 287 287 287 288 288 287 287 287 288 288 288 288 288 288 288 287 288 288 289 289 289
289 289 288 288 287 287 288 288 288 287 286 285 285 285 285 286 287 288 288 288 287 287 287 287 287 287 287 287 287 287 287 287 288 288 288 288 288 288 288 288 288 289 289
288 287 287 287 287 288 288 288 287 286 285 285 285 286 286 286 287 287 287 287 287 287 287 286 286 287 287 286 287 287 287 287 287 287 288 288 287 287 288 288 288 288 289
287 287 287 287 287 287 287 286 285 285 285 285 285 286 286 287 286 287 287 287 287 287 287 287 287 287 287 287 287 287 287 287 287 287 287 287 287 287 288 288 288 288 288
287 287 287 287 287 286 286 286 286 286 285 285 286 286 286 286 287 287 287 287 287 287 287 287 288 288 288 288 287 287 287 287 287 287 287 287 287 287 288 288 288 288 288
287 287 287 287 286 286 286 286 286 285 285 286 287 287 287 287 287 287 287 287 287 288 288 289 290 290 290 289 288 288 287 287 287 287 287 287 287 287 288 288 288 288 289
287 287 287 286 287 287 287 286 285 286 287 287 287 287 287 287 287 287 287 287 288 290 291 291 291 291 291 290 289 288 287 287 287 287 287 287 287 288 287 288 288 289 290
287 287 286 287 287 288 288 287 286 286 286 287 287 287 287 287 287 287 288 289 291 291 291 292 292 292 292 290 289 288 288 288 288 288 287 287 287 287 288 289 290 290 291
287 287 287 287 287 288 288 287 285 285 287 287 287 287 287 287 288 289 289 291 291 291 292 292 292 292 291 291 290 289 289 289 288 288 288 289 288 288 289 290 293 294 296
287 287 287 287 287 287 288 288 286 286 286 287 287 287 287 288 290 290 291 291 291 291 291 291 291 291 291 292 292 291 291 291 291 291 292 293 294 294 294 294 295 296 297

GFSGL_850_thetae_105.txt.gz
Theta_e
324 322 319 317 316 314 313 312 311 311 310 310 310 310 310 309 306 303 301 300 298 297 297 296 296 296 296 296 296 296 295 295 295 295 295 296 296 296 295 295 295 294 295
320 316 315 313 312 312 312 311 311 311 310 310 309 307 304 302 301 299 298 297 297 296 296 295 295 295 295 295 295 295 295 295 295 295 295 294 294 294 295 295 295 295 295
313 312 311 311 311 311 311 310 309 308 307 305 303 302 300 299 298 297 297 297 296 296 296 296 296 296 296 296 296 296 295 295 294 294 296 295 295 294 294 294 294 295 295
312 311 310 309 308 307 306 305 304 303 302 301 300 299 298 298 297 297 297 297 296 297 297 296 297 297 296 295 295 295 295 294 294 294 294 294 295 295 296 295 296 296 295
308 307 307 306 305 304 303 303 301 300 299 299 298 298 298 297 297 297 297 297 297 297 297 297 297 297 295 295 295 295 294 294 294 295 295 295 295 295 295 295 295 295 295
306 305 304 304 303 302 300 299 298 298 298 297 297 297 297 297 297 297 297 297 298 297 297 297 296 296 295 295 293 294 294 294 295 295 295 296 295 295 295 296 295 295 295
303 303 302 301 300 299 299 298 297 297 297 296 296 296 297 297 297 296 296 297 296 296 296 296 295 294 293 293 292 292 293 293 294 295 296 295 295 295 295 295 295 295 295
302 301 300 299 299 299 298 298 297 297 296 296 296 295 295 295 294 294 295 296 295 295 294 294 293 292 292 292 292 292 293 293 294 295 294 295 295 296 295 295 295 295 295
300 299 299 299 299 298 297 296 296 296 296 295 295 295 295 295 294 294 294 293 293 292 292 292 292 292 292 292 293 293 295 295 294 294 296 296 296 296 298 298 296 296 295
299 299 299 298 296 296 296 296 297 296 295 295 294 294 294 293 293 291 290 290 290 291 292 292 291 291 292 293 294 295 293 294 294 295 294 294 295 294 294 295 294 294 293
298 298 296 295 296 297 297 297 296 296 295 294 293 292 291 291 290 290 290 291 291 292 291 291 291 291 291 292 293 293 294 295 295 294 293 293 293 292 292 292 291 291 291
297 296 296 296 297 297 296 296 295 295 293 292 291 290 290 289 289 289 290 291 292 291 291 291 290 290 291 293 295 295 294 294 294 293 292 292 292 291 291 290 290 290 290
295 296 296 296 296 296 295 295 293 292 291 290 289 289 288 289 289 289 289 289 290 290 290 290 291 291 291 292 292 291 291 291 291 290 290 290 290 290 290 290 289 290 289
295 295 296 295 295 294 292 291 290 289 289 289 289 289 289 289 288 288 289 289 289 289 289 290 291 291 291 291 290 289 289 289 290 290 290 291 290 290 289 289 289 289 289
294 294 294 293 292 292 289 288 288 288 288 289 289 289 289 288 288 289 289 289 289 289 290 291 290 290 290 289 288 288 288 288 289 289 289 289 289 289 289 288 288 288 289
293 293 292 291 289 288 287 287 288 288 289 288 287 287 287 287 288 289 288 289 289 290 289 289 288 287 287 288 288 288 287 287 288 288 288 288 288 288 288 288 288 288 289
291 290 289 288 288 287 288 289 289 288 287 286 285 285 286 287 288 288 288 288 289 288 287 287 287 287 287 287 287 287 287 287 287 287 287 288 288 288 288 288 288 288 289
289 288 288 287 288 288 288 287 287 286 286 286 286 285 286 286 287 287 288 287 287 288 288 288 287 287 287 287 287 287 287 287 287 287 287 287 288 288 288 287 288 288 288
288 287 287 288 288 287 287 286 286 286 286 286 286 287 287 286 287 287 287 287 287 287 287 287 287 287 287 287 287 287 287 287 287 287 287 287 288 288 287 287 287 288 288
287 287 287 287 287 287 286 286 286 286 286 287 287 287 287 287 287 287 287 287 287 287 287 287 288 288 288 288 288 288 287 287 287 287 287 287 287 287 287 287 288 287 288
287 287 287 287 287 287 287 287 286 286 287 288 288 288 286 287 287 287 287 287 287 288 288 289 289 290 290 289 289 288 288 287 287 287 287 287 287 287 287 287 288 288 288
287 287 287 287 287 288 288 287 286 286 288 288 287 287 287 287 287 287 288 288 289 290 291 291 291 291 290 290 289 289 288 287 287 287 287 287 287 287 287 287 288 287 288
287 287 287 287 288 288 288 288 286 286 288 288 287 287 288 288 288 289 289 290 291 291 291 291 290 290 290 290 289 289 288 288 287 287 287 287 287 287 287 287 288 288 288
287 287 287 287 287 287 287 288 286 286 288 288 287 287 288 288 289 290 290 291 290 291 290 289 289 290 290 290 290 289 289 288 288 288 288 287 287 287 287 287 288 288 289
287 287 287 287 288 287 287 288 287 286 287 287 287 287 288 289 289 290 290 290 290 290 290 290 291 291 291 292 292 291 291 290 290 289 289 289 289 289 289 289 290 291 292
287 288 288 288 288 288 288 287 287 286 287 287 287 287 288 288 288 289 290 289 290 291 291 292 293 294 294 294 294 294 294 294 294 294 294 293 294 294 295 295 295 295 295

GFSGL_850_thetae_108.txt.gz
Theta_e
328 326 326 323 321 317 316 315 314 312 311 310 310 310 309 309 309 308 306 303 301 299 298 297 296 296 295 295 295 295 295 295 295 295 295 295 295 295 295 294 293 294 294
321 318 317 317 315 314 313 312 311 311 310 309 309 309 308 307 305 302 300 299 298 297 296 296 295 295 295 295 295 295 296 296 295 295 295 294 294 293 294 294 293 294 294
314 313 312 312 312 311 311 310 310 309 309 308 306 305 302 301 299 299 298 297 297 296 296 296 296 295 295 296 296 295 295 295 295 294 294 293 293 293 293 294 295 296 295
311 311 310 310 309 309 308 307 305 304 303 302 301 300 299 298 298 297 297 297 296 296 296 296 296 296 296 296 296 295 295 294 294 293 294 294 294 294 295 295 295 295 295
309 308 307 306 305 304 304 303 302 301 300 299 298 298 298 297 297 297 296 297 297 297 297 297 297 296 297 297 296 296 295 294 294 293 294 294 293 294 294 294 295 294 295
305 304 303 303 302 301 300 299 298 298 297 297 296 296 296 296 296 297 297 297 297 297 297 297 296 296 296 296 296 295 295 294 294 294 295 295 296 296 294 294 294 294 296
303 302 301 300 300 299 298 297 296 296 295 295 295 295 295 295 295 295 295 296 296 296 296 296 295 295 294 293 293 292 292 292 293 293 294 294 295 294 295 294 295 295 295
302 301 300 299 298 298 297 296 295 295 296 295 295 295 295 295 294 294 294 295 294 294 294 294 293 292 292 292 291 292 292 292 293 293 293 294 295 294 295 295 295 295 295
300 299 299 298 298 296 296 296 296 296 296 295 295 294 294 294 294 293 293 292 291 291 290 290 291 291 291 292 293 293 294 294 294 294 294 295 295 296 296 297 296 295 295
299 298 298 296 295 296 296 296 296 296 296 295 294 293 293 292 291 290 290 290 290 290 291 291 291 291 292 293 292 292 292 292 292 293 294 295 294 294 294 293 293 293 293
297 296 295 295 295 296 296 296 296 295 295 293 292 291 291 290 289 288 289 290 291 291 291 291 291 291 291 292 293 293 293 294 295 295 294 294 293 293 292 292 292 292 291
296 295 295 295 296 296 296 295 295 293 292 291 290 289 289 288 289 289 290 291 291 291 290 290 290 290 291 293 294 294 292 293 292 292 292 292 292 291 291 291 291 290 290
295 294 295 295 295 294 293 292 292 290 289 288 288 288 289 289 289 289 288 289 290 290 290 290 291 291 291 291 291 291 291 291 289 289 290 290 290 290 290 290 290 290 290
294 294 294 293 292 292 290 289 288 288 288 288 289 289 288 287 287 287 288 289 289 289 289 289 290 290 290 290 289 290 289 289 288 289 289 289 289 289 290 290 289 289 288
293 293 292 291 290 289 288 288 288 289 289 289 288 287 287 287 286 289 289 289 289 289 291 291 290 289 288 288 288 288 288 288 288 288 288 288 288 288 289 289 289 288 288
293 291 290 289 288 289 289 289 288 287 287 286 286 286 286 287 288 288 288 289 289 289 289 289 288 288 288 288 288 288 288 287 287 287 287 287 288 288 288 288 288 288 288
290 289 289 288 289 288 288 287 287 287 286 286 286 286 286 286 287 288 288 288 288 287 288 288 288 288 288 287 287 287 287 287 287 287 287 287 287 287 288 288 288 287 287
289 289 288 288 288 287 287 287 287 287 287 290 289 288 288 287 287 288 287 287 288 288 288 288 288 288 288 288 288 288 288 287 287 287 287 287 287 287 287 288 287 287 287
288 288 288 288 288 287 287 287 287 286 287 289 289 289 288 287 287 287 287 288 287 288 288 288 288 289 289 289 289 289 288 288 287 287 287 287 287 287 287 288 287 287 287
288 288 288 288 287 287 287 288 287 286 289 289 289 288 287 287 287 288 288 288 288 289 289 289 289 289 290 289 289 289 289 288 288 287 287 287 287 287 287 287 287 287 287
288 288 288 287 287 288 288 288 287 286 288 289 288 287 286 287 288 289 289 289 289 290 290 289 289 289 289 289 289 289 288 288 288 287 287 287 287 287 287 287 287 287 287
288 288 287 287 287 288 288 288 287 286 287 289 288 288 288 289 289 289 289 289 289 290 289 289 289 290 290 289 289 288 288 288 287 287 287 287 287 287 287 287 287 287 287
288 288 287 287 287 288 288 288 288 287 287 288 287 287 288 289 289 289 289 289 290 290 290 290 291 291 291 291 291 291 289 288 288 287 287 287 287 287 287 287 287 287 287
288 288 288 287 288 288 288 288 288 287 286 287 287 287 288 288 288 289 288 289 290 290 291 292 292 293 294 293 293 294 293 292 290 289 289 288 288 287 287 287 288 288 288
288 288 288 288 288 288 288 288 287 286 286 286 287 287 288 288 289 289 288 288 290 291 292 293 293 293 294 293 293 294 294 294 293 294 293 293 293 292 292 291 292 292 291
289 289 289 288 288 288 288 288 287 287 286 286 286 287 287 288 289 289 288 289 290 291 292 292 293 293 293 295 293 294 294 295 295 294 294 294 295 295 295 295 295 295 295

GFSGL_850_thetae_111.txt.gz
Theta_e
326 322 322 322 323 324 321 320 317 315 313 312 311 309 309 309 309 309 308 307 306 303 301 299 298 297 296 296 295 295 295 295 295 295 295 295 295 295 294 294 294 293 293
323 322 321 319 316 314 314 313 312 311 310 309 309 309 308 308 307 307 305 302 300 298 297 297 296 296 295 295 295 295 295 295 295 295 295 295 294 294 293 293 293 292 293
316 316 315 313 312 312 311 310 309 309 309 308 307 307 306 304 302 300 299 298 297 297 297 296 296 296 296 295 295 295 295 295 295 295 295 294 293 293 293 294 294 294 295
311 311 310 310 310 309 309 308 307 306 305 304 302 301 300 299 299 298 298 297 297 297 296 296 296 296 296 296 296 296 296 296 295 295 294 293 293 293 294 294 294 295 295
310 309 307 306 305 304 303 303 302 301 301 300 299 298 298 297 297 297 296 296 296 296 297 297 297 297 297 297 297 296 296 296 295 295 295 294 295 294 295 295 294 294 295
306 305 304 303 303 302 301 300 299 298 297 296 295 295 295 295 295 295 296 297 297 297 297 297 297 296 296 296 296 297 296 296 296 295 295 294 294 295 295 294 294 294 294
303 302 301 300 300 299 298 296 295 295 295 295 295 295 295 294 294 294 294 296 295 295 295 295 295 295 294 294 294 293 293 292 293 293 294 294 294 294 295 295 295 295 295
301 300 299 298 297 296 295 295 295 295 295 295 295 294 294 294 294 294 294 294 294 293 293 293 293 292 292 292 291 292 292 293 293 293 293 293 294 294 294 294 295 295 296
299 299 298 297 295 294 295 295 295 295 295 295 295 294 293 293 293 292 292 291 291 290 289 289 290 291 291 292 293 292 293 293 293 293 293 294 295 295 296 297 296 295 294
298 297 295 294 294 295 295 295 295 295 295 295 293 292 291 291 291 290 289 289 289 290 291 291 291 291 292 293 293 292 292 292 293 293 293 293 293 294 295 295 295 294 294
296 295 294 294 295 295 295 295 295 295 293 292 291 290 289 289 288 288 290 291 291 291 291 291 290 290 291 292 292 293 293 293 294 293 293 292 293 293 293 293 293 293 292
295 294 294 294 294 294 294 293 292 291 290 288 288 288 289 289 289 289 290 290 290 290 290 290 290 290 291 292 293 293 293 293 293 292 291 290 289 290 290 290 290 290 291
294 294 293 293 293 292 291 289 288 288 288 289 290 289 288 287 287 287 288 288 289 289 289 290 290 290 290 290 291 291 291 291 291 290 290 290 289 289 290 290 290 290 290
293 293 293 292 291 289 289 289 289 290 289 288 287 286 286 287 287 288 288 289 289 289 289 291 292 291 290 289 289 288 288 288 288 288 288 288 288 288 289 289 289 289 289
293 292 291 290 289 289 289 289 288 287 287 286 287 287 287 287 287 289 289 289 289 290 291 290 289 289 288 288 289 289 289 289 288 288 287 288 288 288 288 288 288 288 289
292 290 289 289 289 289 288 287 287 287 287 288 289 288 287 287 288 289 289 289 289 289 288 288 288 288 288 288 288 288 288 288 288 287 287 287 287 287 287 287 288 288 288
290 289 289 290 289 288 288 288 288 287 287 290 290 289 289 287 288 288 288 288 288 288 288 288 288 288 288 288 288 288 288 288 287 287 287 287 287 287 287 287 288 288 288
289 289 289 289 288 288 288 288 288 288 288 290 290 289 288 288 288 288 288 288 289 289 289 289 289 289 289 289 289 288 288 288 288 288 287 287 287 287 287 287 288 288 288
289 288 289 288 288 288 288 288 288 287 287 290 290 290 289 288 289 289 289 289 289 288 288 288 288 288 289 289 288 288 288 288 288 288 287 287 287 287 287 287 288 288 288
288 288 288 288 287 288 288 288 288 287 287 289 289 288 287 288 289 289 289 289 288 288 288 288 289 290 290 289 289 288 288 288 287 287 287 287 287 287 287 287 287 287 287
288 288 288 288 288 288 288 288 288 287 287 289 289 288 286 288 289 289 289 287 289 288 289 290 291 291 291 291 291 290 289 288 288 287 287 287 287 287 287 287 287 287 287
288 288 288 288 288 288 288 288 288 288 287 288 288 288 289 289 288 288 288 287 288 290 291 291 292 293 293 293 293 292 292 291 289 288 287 287 287 287 287 287 287 287 287
288 288 288 288 288 288 288 288 288 287 286 287 287 288 288 288 288 288 287 288 289 291 291 292 293 293 293 293 293 294 293 293 293 292 290 289 288 288 288 287 287 287 287
289 289 289 289 289 288 288 288 288 287 286 287 287 287 288 288 288 289 288 289 290 291 291 292 292 292 293 294 293 294 294 293 294 293 293 293 293 292 291 289 289 289 289
289 289 289 289 289 288 288 288 288 287 286 285 286 287 288 288 289 289 288 289 290 291 291 291 292 293 293 293 294 294 294 294 294 294 295 294 294 294 294 294 294 294 294
290 289 289 289 289 288 287 287 288 287 286 285 286 286 287 287 288 288 288 289 290 290 290 291 291 292 292 293 293 293 293 293 294 294 294 295 294 295 295 295 295 295 295

GFSGL_850_thetae_114.txt.gz
Theta_e
323 324 323 321 323 323 323 322 322 321 320 319 317 315 313 311 311 309 309 308 308 308 307 304 302 300 298 298 297 297 298 298 297 297 297 297 297 297 297 297 296 297 296
324 322 322 323 319 317 317 315 313 312 312 312 311 311 308 308 308 308 307 306 305 303 300 299 298 297 297 298 298 297 297 297 297 297 297 297 297 297 296 296 296 296 295
319 317 315 313 313 312 311 310 310 309 309 308 308 307 307 306 305 304 302 300 299 298 298 297 298 298 298 298 298 297 297 297 297 297 297 297 297 296 296 296 296 296 297
312 311 311 310 309 309 308 308 307 307 306 306 305 304 303 301 300 299 298 298 298 298 298 297 297 297 297 298 298 298 297 297 297 297 296 296 296 296 296 296 296 296 296
308 307 306 305 304 303 303 302 301 300 300 299 299 298 298 297 297 298 298 298 298 298 298 298 298 298 297 297 298 297 297 297 297 297 297 295 296 296 295 296 296 296 296
305 304 303 302 301 300 300 299 298 297 296 296 295 295 295 295 295 295 295 298 299 299 298 298 298 298 297 297 297 297 298 298 297 296 296 296 296 295 295 295 295 296 296
303 303 302 301 300 299 297 296 295 295 294 294 294 294 294 294 294 294 294 297 297 297 296 296 296 295 295 295 295 295 295 295 295 295 295 294 294 295 295 295 295 295 295
302 301 300 298 297 295 295 294 294 294 294 294 295 294 294 294 293 293 293 294 295 295 294 294 293 293 293 293 293 293 293 294 294 293 294 294 294 295 295 295 296 296 296
300 298 297 296 295 294 294 294 294 294 295 295 294 294 293 293 293 292 292 292 293 293 292 292 292 292 293 293 293 293 293 294 294 294 295 295 295 296 295 297 297 297 296
298 297 295 294 294 294 295 295 295 295 295 294 293 292 292 290 290 289 289 291 292 293 293 292 292 292 292 293 293 293 293 293 294 294 294 294 295 294 294 294 295 296 296
296 295 294 294 294 295 295 294 294 293 292 291 290 289 289 290 290 290 290 291 291 291 291 291 291 291 291 292 292 292 293 294 294 295 295 294 293 294 294 294 295 295 295
295 294 294 294 294 293 293 292 291 290 289 290 291 291 291 291 289 288 289 290 290 291 291 290 291 291 291 292 293 293 293 292 293 292 292 292 292 292 292 292 292 293 293
294 294 293 293 292 291 290 290 290 290 290 291 291 290 290 289 289 289 289 289 290 290 290 291 291 291 292 292 291 291 291 291 291 291 291 291 291 291 290 290 290 290 291
293 293 293 292 290 290 291 290 289 289 290 290 290 290 290 290 290 289 289 289 290 290 291 291 291 290 290 290 289 290 289 289 289 289 289 289 289 289 289 289 288 289 289
293 293 291 290 290 290 289 288 288 288 287 288 289 289 290 289 289 289 289 290 290 290 290 290 290 290 290 289 289 288 288 288 288 288 288 288 288 288 289 289 288 288 289
293 291 290 290 290 289 288 288 288 287 287 289 290 290 289 288 289 289 289 290 289 289 288 289 289 288 288 288 288 288 288 288 288 288 288 288 288 288 288 288 288 288 288
291 290 289 290 289 288 288 288 288 288 288 290 290 290 289 287 289 289 289 289 289 290 289 289 289 289 289 289 289 288 288 288 288 288 288 288 288 288 287 288 288 288 289
290 289 289 289 289 288 288 288 288 287 287 289 290 290 288 288 289 289 290 290 289 289 288 288 288 289 289 289 289 289 288 288 288 288 288 288 288 288 288 288 288 288 288
290 289 289 289 288 288 288 288 288 287 287 288 290 289 290 290 289 289 289 288 288 288 288 290 290 290 291 291 290 289 289 288 288 288 288 288 288 288 288 288 288 288 288
289 289 289 288 288 288 288 288 288 288 287 288 289 288 288 289 290 289 288 287 288 288 290 291 291 292 292 292 292 292 291 290 289 288 288 288 288 288 288 288 288 288 288
289 289 289 288 288 288 288 288 288 288 287 287 287 287 286 288 288 288 288 287 288 290 291 292 292 292 292 292 292 293 292 292 291 290 288 288 288 288 288 288 288 288 288
289 289 289 288 289 289 288 288 288 288 287 286 287 288 289 288 288 288 288 287 289 290 291 292 292 292 292 293 293 293 293 293 293 292 292 291 289 288 288 288 288 288 288
289 289 289 289 289 289 289 288 288 287 286 286 286 288 288 288 288 288 288 288 290 291 291 291 292 292 292 293 293 292 293 293 293 293 294 294 293 292 291 289 289 289 288
289 289 289 289 289 289 288 288 287 287 287 285 286 287 287 288 288 288 288 289 290 290 291 291 291 292 292 292 292 293 293 293 293 293 294 294 294 294 294 294 293 293 292
289 289 290 289 289 289 288 287 287 287 286 285 285 287 287 287 287 288 288 288 289 290 290 290 291 291 291 292 292 292 292 292 292 292 293 293 294 294 294 294 295 294 294
290 290 290 290 289 288 287 286 287 287 286 286 285 286 286 286 287 287 288 288 288 289 289 290 290 290 290 291 291 291 291 291 291 292 292 293 293 294 295 295 295 294 294

GFSGL_850_thetae_117.txt.gz
Theta_e
322 321 322 320 322 322 322 321 321 322 321 320 318 317 317 315 310 309 309 310 310 310 309 308 306 304 302 300 301 301 300 298 299 299 299 298 298 298 298 298 298 297 297
323 323 321 321 322 321 319 317 315 316 317 317 316 316 314 312 311 310 310 309 307 306 304 303 301 299 299 301 300 299 299 299 298 298 298 298 298 298 298 298 297 296 296
322 321 317 315 314 313 312 311 310 309 310 311 311 309 307 306 305 304 303 302 301 301 300 300 298 298 298 299 299 299 299 298 298 298 298 298 298 297 297 297 297 296 297
314 313 312 310 309 309 308 307 307 306 306 305 305 305 304 303 302 301 300 299 299 299 299 299 299 298 298 298 298 298 299 299 298 298 298 298 297 296 296 297 297 296 296
309 309 307 306 305 304 304 303 303 302 301 300 300 300 299 299 299 299 299 299 299 299 299 299 299 299 299 298 298 298 298 298 298 298 297 297 297 296 296 296 296 295 296
305 304 304 302 301 301 300 299 299 298 297 297 297 296 297 297 295 294 294 295 298 299 299 299 298 298 298 298 298 298 298 297 297 298 297 297 297 297 297 296 296 295 295
302 302 301 301 300 299 299 298 298 298 298 298 298 297 297 297 296 294 294 294 296 297 297 297 296 296 296 296 296 296 296 296 296 296 295 295 295 295 295 295 295 296 295
302 301 301 300 298 298 298 298 298 298 298 298 297 296 296 296 295 293 293 293 295 295 295 295 294 294 294 294 294 294 294 294 294 294 294 294 293 294 294 294 295 296 296
301 300 299 298 298 298 298 297 297 297 297 296 296 295 294 293 293 291 290 290 292 293 293 294 294 294 294 294 294 293 293 293 294 294 295 295 295 296 296 296 296 297 296
299 297 296 295 295 295 295 295 294 295 294 293 293 293 293 292 292 291 292 291 293 293 293 292 291 292 293 293 292 292 293 293 294 294 294 294 294 295 294 294 294 295 295
297 296 295 294 294 294 294 293 293 292 292 293 293 293 293 293 292 291 289 289 291 291 291 291 291 292 292 293 292 293 292 293 294 295 293 293 294 294 293 293 293 294 295
296 295 294 294 294 293 293 292 292 293 292 292 292 292 292 292 291 291 289 290 291 291 291 291 291 291 293 293 293 293 294 293 292 292 292 292 292 292 292 292 292 292 293
295 294 294 294 293 292 291 292 292 291 290 291 292 292 292 291 291 291 290 290 291 291 291 291 292 292 291 291 291 292 292 291 291 290 290 291 291 291 291 291 291 291 291
295 295 294 293 292 291 292 291 290 291 290 290 291 291 292 291 291 290 290 290 290 291 291 291 291 291 291 291 290 290 289 290 289 289 289 289 289 290 289 290 290 290 290
296 295 293 292 291 291 290 289 289 289 289 288 289 291 290 290 290 290 290 290 291 291 290 290 290 290 289 290 289 289 289 288 288 288 289 289 289 289 289 289 289 289 289
295 294 293 291 291 290 290 290 290 289 289 289 290 291 291 289 289 290 290 290 290 289 289 289 289 289 289 289 289 289 289 288 288 288 288 288 288 288 288 288 288 289 289
295 294 291 290 290 290 289 289 290 289 289 289 289 291 291 289 289 290 290 289 289 289 289 289 289 289 289 289 289 289 289 289 289 288 288 288 288 288 288 288 288 288 288
294 292 290 290 290 289 289 289 289 289 289 289 289 290 290 289 289 290 290 290 289 289 288 289 289 290 291 291 292 292 291 291 289 288 288 288 288 288 288 288 288 288 288
292 290 290 290 289 289 289 289 289 289 289 289 288 289 289 288 288 288 288 288 288 288 289 290 291 292 292 291 292 292 292 292 291 290 289 288 288 288 288 288 288 288 288
291 290 289 289 289 289 289 289 289 289 289 288 288 288 289 289 289 289 287 288 288 289 290 291 292 292 292 292 292 292 293 292 293 292 291 290 289 288 288 288 288 288 288
291 290 289 289 289 289 289 289 289 289 288 288 288 288 287 288 288 288 287 287 288 289 290 291 292 292 291 292 292 292 292 292 293 292 292 293 291 290 289 289 288 288 288
290 290 289 289 289 289 289 289 289 289 288 288 287 288 288 288 288 288 287 288 289 289 290 290 291 292 291 291 292 292 292 293 292 292 293 293 293 293 292 291 290 289 289
290 290 289 289 289 289 289 289 288 288 288 288 287 288 288 288 288 288 288 288 288 289 290 291 291 291 291 291 291 291 291 292 291 292 292 292 292 293 294 294 293 292 291
289 289 289 290 290 289 289 288 288 288 288 287 287 286 287 288 288 288 288 288 288 289 289 290 290 290 290 291 291 291 291 291 291 291 291 291 292 292 293 293 294 294 294
290 290 290 290 290 289 289 288 287 287 287 286 286 286 287 287 287 287 287 287 288 288 288 289 289 289 289 290 290 290 290 290 290 291 291 292 292 292 292 293 293 294 294
290 290 290 290 290 289 288 287 286 287 287 286 286 286 286 286 286 286 286 286 287 288 288 288 289 289 289 289 290 291 291 292 292 292 292 292 292 293 293 293 293 293 293

GFSGL_850_thetae_120.txt.gz
Theta_e
321 321 321 321 321 321 321 321 321 321 321 320 318 317 315 312 313 313 309 308 308 309 310 309 308 308 305 307 304 301 302 304 303 301 300 299 298 298 298 298 298 298 297
321 321 322 321 320 320 320 319 316 317 318 316 315 314 314 315 314 312 311 311 310 308 307 306 304 302 302 299 298 301 301 299 299 299 298 298 298 298 298 297 297 297 297
320 320 317 314 313 312 311 310 310 311 312 312 312 312 310 307 305 304 303 302 302 302 301 302 301 299 298 299 298 299 299 299 299 298 298 298 298 298 298 298 297 296 297
313 312 311 310 309 309 308 308 307 306 307 307 306 305 305 305 305 303 302 301 300 300 299 299 299 299 298 298 298 298 298 298 299 299 298 298 298 298 297 296 296 296 296
309 309 308 307 307 306 305 304 303 303 302 302 301 301 300 301 300 300 300 299 298 298 299 299 299 299 300 300 299 299 298 298 297 297 297 297 297 297 296 296 296 297 296
306 305 304 303 302 301 301 300 299 298 298 297 296 296 296 295 295 295 294 294 294 294 297 298 299 299 298 297 297 297 297 296 296 296 297 296 295 295 295 295 296 295 295
303 302 302 301 299 298 296 296 296 297 297 297 297 296 296 295 295 294 293 293 293 294 296 297 296 296 296 295 295 294 294 295 295 296 295 295 295 295 295 294 294 294 294
302 301 300 298 297 297 297 297 298 297 297 296 296 295 295 295 294 293 292 291 291 293 294 294 293 293 293 294 294 294 294 293 293 293 293 294 294 294 294 294 294 295 294
301 300 298 297 297 297 297 296 296 296 296 295 294 294 293 293 293 293 292 292 292 293 293 294 294 294 293 293 293 293 292 292 292 293 294 295 295 295 295 296 296 296 295
300 298 297 297 296 295 295 295 294 294 293 293 293 293 293 292 292 292 290 290 289 290 291 291 291 291 292 293 293 292 292 292 292 292 293 294 294 294 294 294 294 294 294
299 296 295 295 294 294 294 293 293 293 293 293 292 292 292 292 292 291 291 291 291 291 291 290 290 291 292 293 294 295 294 294 296 295 293 293 292 292 292 292 293 293 292
298 296 295 294 294 293 293 293 293 293 292 291 291 291 291 292 292 292 292 292 292 292 291 291 291 293 293 292 293 292 293 293 293 292 291 290 291 291 292 292 293 292 292
297 295 294 294 293 292 292 293 292 291 291 291 290 291 291 292 292 291 291 291 291 292 292 292 292 292 291 291 291 291 291 290 290 289 289 289 289 289 289 290 290 290 291
297 295 294 294 293 292 293 292 290 291 290 289 289 290 291 292 292 291 291 291 291 291 291 291 291 290 290 290 289 289 289 289 289 289 288 288 288 289 289 289 289 289 289
296 295 294 293 292 292 292 290 290 290 289 289 289 290 291 292 292 291 291 291 291 290 290 290 289 289 289 290 289 288 289 289 288 289 288 288 288 288 288 289 289 289 289
296 295 294 293 291 292 291 290 290 290 289 289 289 289 291 292 290 291 291 290 290 290 289 289 289 289 289 289 289 290 291 290 289 289 289 289 288 288 288 288 288 288 288
295 294 294 292 291 291 290 289 289 290 289 289 289 289 291 289 289 290 289 290 289 289 289 288 289 289 289 290 291 291 291 291 291 290 290 289 288 288 288 288 288 288 288
295 294 293 291 291 291 290 289 289 289 289 289 289 289 290 289 289 289 289 289 289 288 288 289 290 290 290 290 291 292 292 291 292 291 291 291 289 288 288 288 288 288 288
295 294 292 291 291 290 289 289 289 289 289 289 289 288 290 288 289 288 288 288 288 288 288 289 290 291 291 291 291 292 292 292 292 292 292 292 291 291 290 288 288 288 288
294 293 291 290 290 289 289 289 289 289 289 289 288 289 290 289 288 288 288 287 287 288 288 289 290 291 291 291 291 291 292 292 292 292 291 291 291 291 291 291 290 289 289
294 293 291 290 290 290 290 289 289 289 289 288 288 288 288 288 288 287 288 287 288 288 289 289 290 290 290 290 290 290 290 291 291 291 291 292 292 292 292 292 292 291 290
294 292 290 290 290 290 289 289 289 289 288 288 288 288 287 287 287 287 288 287 287 288 289 289 290 290 291 291 290 290 290 290 290 291 291 291 291 291 291 292 292 293 292
293 291 290 290 290 290 290 289 289 288 288 288 288 287 286 287 287 287 287 287 287 287 288 289 289 290 290 290 290 290 290 290 290 290 290 290 290 291 291 291 292 292 292
293 291 290 290 290 290 290 289 288 288 288 288 287 287 286 286 286 287 287 287 287 287 287 288 288 288 289 289 289 289 289 289 290 290 291 291 290 291 292 292 292 292 293
291 290 290 291 291 290 290 289 288 287 287 287 287 286 286 285 285 285 286 285 285 287 288 288 288 288 288 288 289 289 290 291 291 290 290 291 291 292 292 292 292 292 292
291 290 290 291 291 290 289 288 287 286 286 287 287 286 286 286 286 285 284 285 285 286 288 288 289 289 289 290 290 291 290 290 290 290 290 291 292 292 292 293 292 293 293

GFSGL_850_thetae_123.txt.gz
Theta_e
322 322 321 321 320 321 321 321 321 322 320 319 318 317 316 314 312 310 310 311 309 308 308 309 309 308 308 310 309 306 302 301 301 301 299 298 298 299 299 298 298 298 297
320 321 321 321 321 321 320 320 320 319 317 316 315 313 312 311 311 310 309 309 309 309 310 310 308 307 303 301 299 298 299 299 299 299 298 298 298 298 297 297 296 297 297
320 320 319 317 315 313 312 312 312 314 314 313 312 312 311 310 309 307 305 304 304 303 302 301 301 300 299 299 299 298 299 298 298 299 298 298 298 298 298 298 298 297 296
315 313 310 310 309 308 308 308 308 308 308 307 308 307 306 305 303 303 302 301 301 300 300 299 299 299 298 298 298 298 298 298 298 298 298 298 297 297 297 297 297 297 296
310 308 307 307 307 306 306 305 305 305 304 304 305 304 303 302 301 301 300 300 299 299 298 299 298 299 299 299 300 299 298 298 297 297 296 296 296 296 296 295 295 295 295
309 307 305 304 302 301 301 300 300 299 299 298 298 297 297 296 295 295 294 294 293 293 294 296 297 298 299 298 298 297 297 297 296 296 295 295 295 295 295 295 294 294 294
303 302 301 301 299 297 296 296 296 296 296 296 295 295 294 294 294 294 294 293 293 293 293 294 294 294 294 294 294 294 293 293 293 294 293 293 293 293 293 294 293 294 293
302 301 299 297 296 296 296 296 296 296 296 296 295 294 294 294 293 293 293 292 292 291 291 292 292 293 293 293 294 294 293 293 292 292 292 292 294 295 296 296 295 296 295
301 299 298 297 297 297 297 296 296 296 295 294 294 293 293 293 293 292 291 290 291 291 292 293 293 293 292 293 293 293 293 293 293 293 292 293 294 293 293 294 294 293 294
300 298 297 296 296 295 295 294 294 294 293 293 293 293 292 292 292 291 292 292 290 290 291 290 290 290 292 293 294 294 294 294 294 294 295 295 294 293 292 292 292 292 293
300 297 296 295 295 294 294 293 293 293 293 293 292 292 292 292 291 292 292 292 293 292 291 291 291 293 294 294 293 293 293 293 293 292 291 291 291 291 291 291 292 292 293
299 297 295 295 294 294 293 293 293 293 291 291 291 291 291 291 292 293 292 292 293 292 292 292 293 293 292 292 292 292 292 291 290 289 289 289 289 289 289 289 289 290 290
300 297 295 294 294 293 292 293 293 291 291 291 290 290 290 291 292 292 291 291 292 292 292 292 291 291 290 290 289 290 290 290 289 288 288 288 288 288 288 288 289 289 289
300 298 295 294 294 293 292 293 292 291 291 290 289 289 290 291 292 292 292 292 291 291 291 291 291 290 290 290 291 291 290 289 290 290 289 289 288 288 288 288 288 288 289
300 297 295 294 293 292 292 292 290 290 290 289 289 289 290 291 292 291 292 291 291 291 290 291 291 291 290 289 290 290 291 291 291 290 291 290 289 288 288 288 288 288 288
300 298 295 294 293 292 292 291 291 290 290 290 289 290 289 291 291 291 291 290 290 290 289 288 289 289 289 290 290 291 291 291 291 291 291 291 290 289 288 288 288 288 288
300 298 295 294 293 292 292 291 290 290 290 289 289 289 289 290 291 290 289 289 289 289 288 288 289 289 290 290 291 291 291 291 291 291 290 290 290 291 291 290 288 288 288
299 297 295 294 293 292 291 290 290 289 289 289 289 289 288 289 289 289 289 289 288 288 288 288 289 290 290 290 290 291 291 291 291 291 291 291 291 291 291 291 291 289 289
299 298 295 294 292 291 291 290 289 289 289 289 289 289 288 289 288 288 288 288 288 287 287 288 289 290 290 290 290 291 291 291 291 291 291 291 291 291 291 291 291 291 290
299 297 295 293 292 291 290 290 289 289 289 289 289 288 288 288 288 287 288 287 288 287 288 288 289 289 290 289 289 289 289 290 290 290 290 290 292 290 290 291 291 291 291
298 297 294 292 291 291 290 290 290 289 289 289 289 288 288 287 288 287 288 288 287 287 288 288 288 289 289 289 289 289 289 289 289 289 290 290 290 289 289 291 290 291 291
298 296 294 292 291 290 290 290 290 289 289 288 288 288 288 287 287 287 287 287 287 287 287 288 288 289 289 289 289 289 289 289 288 289 289 290 290 289 290 289 290 290 291
298 295 293 291 290 290 290 290 289 289 288 288 288 288 287 287 287 287 287 286 286 286 287 287 287 288 288 288 288 288 288 289 289 289 289 289 290 289 290 290 290 290 291
299 294 292 291 290 290 290 290 289 288 288 288 288 287 287 287 286 285 286 285 285 285 286 287 287 287 288 288 288 288 289 289 289 289 289 289 289 289 290 291 291 292 292
296 293 291 291 291 291 290 290 289 288 287 287 287 287 287 286 287 285 284 284 284 285 286 287 288 288 288 289 289 290 290 290 289 289 289 289 289 289 290 291 291 292 292
295 292 291 291 291 291 290 290 288 287 287 286 286 287 287 286 286 285 285 284 284 285 286 287 288 288 289 290 290 290 290 288 288 288 288 289 289 290 291 291 291 292 292

GFSGL_850_thetae_126.txt.gz
Theta_e
323 323 323 322 322 322 322 321 321 321 321 319 318 317 315 314 313 312 311 311 311 310 310 308 308 308 308 308 308 308 306 303 302 301 301 300 298 297 297 297 297 297 297
320 320 320 320 320 321 321 320 320 320 319 318 317 316 315 313 312 312 312 311 309 308 308 309 309 307 306 305 302 301 299 299 299 299 298 298 298 298 298 297 298 298 298
320 320 320 320 319 317 316 316 317 317 317 315 313 313 312 311 311 309 309 309 309 309 308 305 303 302 301 300 299 299 298 298 298 298 298 298 298 298 298 298 298 298 297
318 316 314 312 311 310 310 310 311 312 312 313 312 311 310 309 307 305 304 303 303 302 301 301 301 300 299 299 298 297 298 298 297 297 297 297 296 295 296 296 296 295 295
311 310 309 309 308 308 308 307 306 306 306 305 304 303 303 302 301 301 301 301 300 300 300 299 299 298 298 298 298 298 299 298 298 297 297 296 295 295 295 294 294 294 294
309 309 308 306 304 303 303 302 302 302 302 301 301 301 301 300 300 299 298 297 297 296 295 296 297 297 297 297 298 297 297 295 295 294 294 294 293 293 293 293 293 293 293
306 304 302 301 301 300 299 298 297 297 296 296 295 295 294 294 294 294 294 293 293 293 293 293 294 294 294 294 293 293 293 293 293 293 292 292 292 292 293 294 295 295 294
303 302 301 299 297 296 296 296 295 295 295 295 294 294 294 294 294 294 294 293 293 292 292 292 292 292 292 293 292 292 292 293 293 292 293 292 292 293 295 295 294 293 293
302 300 298 296 296 296 296 295 295 295 294 294 294 294 293 293 293 292 291 291 291 291 291 292 292 291 291 293 294 293 293 294 294 293 294 294 295 294 294 293 293 292 292
301 299 297 296 296 295 295 295 294 294 294 293 293 293 292 292 291 291 293 293 292 291 291 291 291 291 293 294 295 294 293 293 293 293 292 292 291 291 292 291 291 291 292
301 299 297 296 295 295 294 294 293 293 293 293 292 292 291 291 291 292 293 292 293 292 292 291 292 293 294 294 293 293 293 293 292 292 291 290 290 289 289 289 289 289 289
301 298 296 295 295 294 294 293 293 293 293 292 291 291 291 291 292 293 293 292 292 293 292 292 292 292 292 292 292 292 291 291 291 291 291 290 289 289 288 288 288 288 289
301 298 296 295 294 294 293 293 293 292 291 291 290 290 290 290 291 291 291 292 292 292 291 291 291 291 291 290 290 291 291 291 292 292 291 290 290 289 289 288 288 288 288
301 298 296 295 294 293 292 293 292 291 291 290 289 289 289 290 291 291 291 292 291 291 291 290 290 290 289 290 290 290 290 291 290 291 292 292 291 291 290 288 288 288 288
302 299 297 295 294 293 292 292 291 290 290 289 289 289 289 289 291 291 292 291 290 291 290 290 289 289 289 289 290 290 290 290 290 290 291 291 290 291 291 291 290 289 288
302 300 297 295 294 293 292 292 291 290 290 290 289 289 289 289 290 291 291 290 290 290 289 288 288 289 290 289 290 291 291 290 290 290 290 290 290 290 290 290 290 289 288
303 301 298 296 294 293 292 292 291 290 290 290 289 289 289 289 290 290 290 290 289 289 288 288 288 289 289 290 290 291 291 290 290 290 290 290 290 290 290 290 290 290 290
303 302 299 296 294 293 292 291 291 290 290 289 289 289 289 288 289 290 289 289 288 288 288 288 288 289 290 290 290 290 290 290 290 290 290 291 290 290 290 289 290 290 290
303 302 298 296 294 293 291 291 290 290 289 289 289 289 289 288 288 289 288 288 287 288 288 288 288 289 289 289 289 289 289 289 289 289 290 290 290 290 290 289 289 290 290
303 302 299 296 294 293 291 291 290 290 289 289 289 289 288 288 287 287 287 288 287 288 287 287 288 288 288 289 289 288 289 289 289 288 288 289 289 290 289 289 289 289 289
303 301 298 296 294 292 291 291 290 290 289 289 289 288 288 288 287 287 287 287 287 287 287 287 287 288 288 288 288 288 289 289 289 290 288 288 289 290 289 290 289 289 289
302 301 298 296 294 292 291 290 290 290 289 289 288 288 288 288 287 286 287 287 287 286 286 287 287 287 287 288 287 287 288 287 288 288 288 288 289 289 288 288 289 290 289
302 300 297 297 293 291 290 290 290 290 289 289 288 288 288 287 287 287 286 286 286 286 285 285 286 287 287 287 287 288 288 288 287 288 288 288 288 288 288 288 289 289 290
301 299 299 299 292 291 290 290 290 290 289 288 288 288 287 287 287 287 286 285 285 285 285 285 286 287 287 288 288 288 289 288 288 287 288 288 287 288 288 289 288 289 290
300 298 302 294 292 290 290 290 290 289 288 287 287 287 287 287 287 287 286 286 285 285 285 286 286 287 288 288 289 289 288 288 288 287 288 287 287 288 289 289 289 290 290
299 303 298 293 291 290 290 290 290 289 288 287 286 286 287 287 287 286 286 286 285 285 286 286 287 288 288 287 287 286 287 288 288 288 287 287 287 288 289 289 290 290 290

GFSGL_850_thetae_129.txt.gz
Theta_e
323 322 321 322 322 322 323 322 321 321 319 318 318 317 315 312 312 312 312 311 312 312 311 311 310 309 309 308 308 308 307 308 308 304 303 302 300 299 297 296 296 296 296
322 322 322 322 321 321 320 320 320 320 319 318 317 316 316 316 314 313 313 313 312 311 310 310 309 308 308 307 306 306 303 301 300 299 299 298 297 297 297 298 298 298 298
320 320 321 320 321 321 320 319 319 319 318 317 317 315 315 314 312 312 312 312 311 310 308 307 307 307 306 304 301 300 299 299 298 296 296 297 297 297 296 295 295 296 296
320 320 318 315 313 313 314 315 316 315 315 315 313 313 312 312 311 311 311 310 309 309 308 306 304 302 301 300 299 299 297 296 297 297 297 297 297 296 295 295 294 294 294
313 312 311 310 309 309 309 309 310 310 311 311 311 311 309 306 305 304 303 303 303 302 301 301 300 299 299 298 297 297 298 298 298 297 296 295 294 293 293 293 293 293 293
310 309 309 309 307 305 305 304 305 304 304 304 303 303 302 302 302 301 300 300 300 299 299 299 298 298 297 297 297 297 297 296 295 293 293 293 292 292 291 292 292 293 295
309 307 305 304 303 302 301 300 300 300 300 300 300 299 298 297 296 295 295 294 294 294 293 294 294 295 295 295 295 294 293 293 293 293 292 292 292 292 292 293 294 295 294
305 304 302 301 299 298 297 296 296 295 295 295 294 294 294 294 294 294 294 293 293 293 292 292 293 293 292 292 293 293 292 292 293 294 294 293 294 295 295 294 294 293 293
303 302 300 297 296 296 296 295 295 295 294 294 294 294 294 294 293 292 292 292 291 291 291 291 291 292 291 291 292 293 294 294 293 293 293 293 293 292 292 292 293 292 291
302 300 298 296 296 296 295 295 295 294 294 294 294 294 293 292 292 291 292 293 293 292 291 291 291 291 291 293 295 295 294 292 292 292 292 292 291 291 290 290 289 289 289
302 299 297 296 296 295 295 294 294 294 294 294 293 292 292 291 291 291 293 294 293 293 293 292 292 292 294 294 294 293 292 292 291 291 291 291 291 291 290 289 288 288 288
302 300 298 296 295 295 294 294 293 293 293 293 292 291 291 291 291 292 293 292 292 292 292 292 292 292 293 292 292 292 292 292 291 291 292 292 292 292 291 290 289 288 288
302 301 298 296 295 295 294 293 293 293 293 291 291 291 290 290 290 291 291 291 292 292 292 291 291 291 291 291 291 290 290 291 292 292 292 292 292 292 292 291 289 289 288
302 301 299 297 295 294 294 293 293 293 292 291 291 290 290 289 290 290 291 291 292 291 291 290 290 290 289 290 290 289 290 290 290 290 290 290 290 290 291 291 291 291 291
302 301 300 297 295 294 293 293 293 292 291 290 290 289 289 289 289 290 291 292 291 291 290 289 290 289 288 289 289 290 290 290 290 290 290 290 290 290 290 290 290 290 289
302 301 300 298 296 294 293 292 292 291 290 290 289 289 289 289 289 291 291 291 290 290 290 289 288 288 289 289 289 290 290 290 289 289 289 289 289 290 289 289 289 290 290
303 302 301 298 296 294 293 292 292 291 290 290 290 289 289 289 289 290 291 290 289 289 289 288 288 288 288 289 289 290 290 291 290 289 289 289 290 290 289 290 290 289 289
303 302 302 300 297 295 293 292 292 291 290 290 290 289 289 289 289 289 290 289 288 288 288 287 288 288 288 289 288 288 289 289 289 289 288 288 289 290 290 290 289 288 289
303 303 302 301 298 295 294 292 291 291 290 289 289 289 289 288 288 289 289 288 287 287 287 287 287 288 288 288 288 288 288 288 288 288 288 288 288 288 289 290 289 289 289
304 303 303 301 298 295 294 292 291 290 290 289 289 289 289 288 288 287 286 287 287 287 287 287 287 287 287 288 289 288 288 288 288 288 288 287 288 288 289 290 289 289 288
305 303 302 301 298 296 294 292 291 290 290 289 289 289 288 288 288 287 286 286 287 287 287 286 286 287 287 287 287 287 287 287 287 287 287 287 288 289 290 289 288 288 288
305 303 302 301 298 295 294 292 291 290 289 289 289 289 288 288 288 287 287 286 286 286 286 286 286 286 286 286 286 285 287 287 287 287 287 287 288 288 287 288 288 288 289
304 303 302 301 298 295 293 291 290 289 290 289 289 288 288 288 287 287 286 286 285 285 286 285 285 285 286 287 287 286 286 286 286 286 287 287 287 287 287 288 288 288 288
304 303 302 300 297 296 294 291 290 290 290 289 288 288 288 288 287 287 286 286 285 285 284 285 285 287 287 287 288 288 288 287 287 286 286 286 287 287 287 287 287 287 288
303 302 301 299 298 301 293 290 290 290 290 289 288 287 287 287 287 287 286 286 285 285 285 286 287 287 288 288 288 288 287 286 286 286 286 286 287 288 288 288 288 289 289
302 301 300 297 303 297 291 290 290 290 290 288 287 287 286 286 287 287 287 286 286 286 286 287 287 287 286 285 285 285 285 287 287 287 287 287 288 288 288 288 288 288 290

GFSGL_850_thetae_132.txt.gz
Theta_e
322 320 322 323 323 323 323 323 323 322 321 321 320 317 314 313 314 313 312 312 312 312 312 312 312 312 312 310 309 309 308 307 308 308 307 305 303 300 299 298 296 297 297
321 322 321 322 322 322 322 322 320 320 319 318 317 317 315 313 312 312 312 312 312 312 312 312 311 310 309 309 308 307 306 307 304 302 300 299 298 296 296 296 296 296 295
320 321 321 320 321 322 321 320 320 320 319 317 315 315 314 314 314 314 313 313 312 312 311 311 310 308 307 306 306 306 302 300 300 299 297 295 296 296 296 295 294 294 294
320 320 320 320 320 320 320 318 318 317 316 316 315 315 313 313 312 312 311 311 310 309 308 307 307 306 306 303 301 300 299 298 296 296 296 297 296 295 293 293 292 292 292
318 315 312 311 311 312 312 312 312 313 313 313 313 312 312 311 310 309 308 308 308 308 308 306 303 301 300 300 299 298 296 296 297 296 296 294 293 292 292 292 292 292 292
310 310 309 309 307 307 306 306 306 308 308 308 307 306 304 304 303 303 302 302 301 301 300 300 299 299 299 298 296 296 296 296 295 293 293 293 292 292 293 293 293 295 294
309 308 306 304 303 302 301 301 301 301 302 301 301 301 300 300 299 299 299 298 297 297 297 297 296 296 295 295 296 295 294 293 293 292 292 292 293 294 294 294 294 294 293
307 304 303 301 299 298 297 297 296 296 296 295 295 294 294 294 294 294 294 293 293 293 293 293 293 293 293 293 292 292 292 292 292 293 294 294 293 294 293 293 292 292 291
304 303 301 298 297 296 296 295 295 295 295 294 294 294 294 294 294 293 292 292 292 292 291 291 291 291 291 291 293 293 294 294 294 293 293 293 292 292 292 291 290 290 290
303 302 299 297 296 296 295 295 295 294 294 294 294 294 293 292 292 291 291 292 293 292 292 291 291 291 291 293 295 294 294 293 292 292 292 292 291 291 290 289 289 289 288
303 302 299 297 296 295 295 295 294 294 294 293 293 293 292 291 291 291 292 293 293 293 293 292 292 292 294 294 294 293 293 292 291 292 291 291 291 291 290 290 289 289 289
302 301 299 297 296 295 295 295 294 294 293 293 293 292 291 291 290 291 292 292 293 292 292 292 292 292 292 293 292 292 292 291 291 291 291 292 292 292 291 290 290 289 289
302 301 300 298 296 296 295 294 294 293 293 293 292 291 291 290 290 290 290 291 292 292 292 291 291 291 291 291 291 291 290 290 290 290 290 290 290 290 290 290 291 291 291
303 302 301 299 297 296 295 294 293 293 293 292 291 291 290 290 289 289 290 291 291 291 291 291 290 290 290 290 289 289 290 290 290 290 290 289 289 290 289 289 289 289 290
303 302 302 300 298 296 295 294 293 293 293 291 291 290 290 289 289 289 289 291 292 291 290 290 289 289 288 288 289 289 289 290 289 289 289 289 289 289 289 289 289 289 289
304 303 302 301 300 297 295 294 293 293 292 291 291 290 289 289 289 289 289 291 291 290 290 290 289 288 288 288 289 289 289 289 289 289 289 289 289 289 289 289 289 289 289
305 304 303 302 301 298 296 294 293 292 292 291 290 290 290 289 289 289 289 291 290 289 289 288 288 288 288 288 288 288 288 289 289 289 289 289 288 288 288 288 288 289 288
305 304 303 302 302 300 297 295 293 292 292 291 291 290 290 289 289 289 288 290 289 288 288 288 288 288 288 288 288 288 288 288 288 288 288 288 288 287 288 288 289 288 289
306 304 303 302 302 301 298 295 293 292 292 290 290 290 289 289 289 288 288 288 288 288 288 287 287 287 287 287 288 287 287 287 288 288 288 288 287 287 288 288 289 289 288
306 305 304 303 302 301 298 295 294 292 291 291 290 289 289 289 289 288 288 287 286 287 287 287 287 287 287 287 287 287 287 287 287 287 287 287 287 287 288 288 289 289 288
307 306 304 303 302 301 299 296 294 292 291 291 290 289 289 289 288 288 288 287 286 286 286 286 286 286 286 285 285 286 286 286 286 286 286 287 287 287 288 288 287 287 288
308 306 305 303 302 301 299 296 294 292 291 290 290 289 289 289 288 288 287 287 286 286 286 286 286 286 285 285 285 285 285 286 286 286 286 286 287 287 287 287 287 287 288
307 306 305 303 302 301 299 296 294 294 291 290 290 289 289 288 288 288 287 287 286 286 285 285 285 285 285 285 286 285 285 286 286 286 286 286 286 286 286 286 287 287 288
307 306 305 304 302 301 298 295 296 293 291 290 290 290 289 288 288 287 287 287 286 286 286 284 285 286 286 287 287 287 287 287 286 285 285 285 285 286 287 287 288 288 288
306 305 304 303 302 300 297 295 295 294 290 290 290 289 288 287 287 287 287 287 286 286 287 286 286 286 286 287 287 286 285 285 285 286 286 286 286 287 287 287 288 288 288
306 304 303 302 301 300 297 299 296 291 290 290 290 289 288 287 286 286 286 286 286 286 287 286 286 287 287 285 285 285 285 285 285 286 286 286 287 287 288 288 287 287 288

GFSGL_850_thetae_138.txt.gz
Theta_e
323 324 323 323 324 325 324 324 324 323 323 323 324 324 323 322 316 312 311 311 311 311 311 311 311 311 312 311 312 312 312 311 310 310 309 306 304 305 305 304 301 300 297
321 322 321 321 322 322 322 321 321 321 321 321 320 319 320 320 318 316 312 311 312 312 311 312 312 311 312 312 312 312 309 308 308 307 306 305 303 302 300 299 296 295 295
322 321 321 323 323 322 321 319 317 318 319 318 316 315 315 315 314 313 312 312 312 312 311 311 311 312 311 310 308 308 307 306 305 304 302 300 299 297 295 295 295 294 293
320 320 321 321 321 320 320 319 318 318 317 317 315 313 313 312 312 312 312 312 311 311 311 311 311 310 309 308 306 305 304 303 301 300 298 296 295 295 294 294 294 295 296
319 320 320 320 320 319 318 318 317 318 316 316 315 314 314 314 313 313 312 311 311 310 309 307 306 305 305 304 303 301 300 300 297 295 296 295 296 295 295 294 296 296 297
319 319 319 317 316 314 314 314 314 313 314 313 313 312 311 311 311 310 310 309 309 308 307 306 305 302 301 300 300 299 297 295 295 296 296 295 295 295 295 295 295 296 296
313 312 312 311 310 309 309 309 310 310 310 310 308 306 304 304 303 303 302 302 301 301 300 300 299 299 299 299 297 295 294 294 293 294 295 295 294 295 295 294 295 295 295
309 307 306 305 303 303 304 304 303 302 303 302 301 299 297 296 296 295 295 295 295 295 295 296 296 296 296 295 295 295 294 294 294 294 294 294 294 293 293 293 293 293 293
307 304 302 300 299 298 298 297 297 297 296 295 294 294 294 295 295 294 294 294 293 293 293 293 293 293 292 292 292 294 294 295 293 293 293 293 292 292 292 292 293 292 293
305 303 299 298 297 296 296 296 295 295 295 295 294 294 294 293 293 292 292 292 292 292 292 292 292 292 291 293 295 295 295 294 293 292 292 291 291 292 292 292 292 292 292
304 302 298 297 296 296 295 295 295 295 295 294 294 294 293 292 292 292 291 292 293 294 294 294 293 293 294 295 294 294 294 293 292 291 291 291 291 291 291 291 292 292 292
303 302 298 297 296 296 295 295 295 295 294 294 294 293 292 292 291 291 291 291 291 293 293 293 293 292 293 293 293 293 293 292 291 291 291 291 291 291 291 290 290 290 290
304 302 299 297 296 296 295 295 295 295 294 294 294 293 292 292 291 290 290 290 290 292 292 291 292 292 292 292 292 292 292 291 291 290 290 291 290 290 290 290 290 290 290
304 302 300 298 297 296 296 295 295 294 294 294 293 292 292 291 291 290 290 290 290 291 291 291 291 291 290 290 290 291 290 290 290 290 290 289 289 290 290 290 290 289 290
305 303 301 299 298 297 296 296 295 294 294 294 293 292 292 291 291 290 290 290 291 292 290 290 290 290 290 290 290 289 289 289 290 290 289 289 289 289 289 289 289 289 289
306 304 302 301 299 298 297 296 295 294 293 293 293 292 292 291 291 290 290 289 290 290 291 291 291 290 289 289 289 289 289 289 289 289 289 289 289 289 289 289 289 288 288
308 305 303 302 301 300 299 297 296 295 294 293 293 292 291 291 290 290 290 289 291 290 291 291 290 289 289 289 289 289 289 289 289 289 289 289 288 288 288 288 288 288 288
309 308 306 304 302 301 301 299 298 296 295 293 293 292 291 290 290 290 289 289 291 290 290 289 289 289 288 288 288 289 288 288 288 288 288 288 288 288 289 288 288 287 288
311 310 308 305 304 302 301 300 299 297 295 293 293 292 291 290 290 289 289 290 290 290 289 288 288 288 288 288 288 288 288 288 288 288 288 288 288 287 287 287 287 287 288
311 311 310 308 305 303 302 301 300 298 296 294 292 292 291 290 290 290 289 289 289 288 288 288 288 288 287 287 287 287 286 286 286 287 287 286 287 287 287 287 288 288 288
312 311 311 308 306 305 303 302 301 300 298 295 293 292 291 290 290 290 289 289 288 288 287 287 287 287 287 287 286 286 286 286 286 286 286 286 287 287 287 287 287 287 287
313 312 311 310 308 306 304 302 301 300 298 296 293 292 291 290 290 289 289 289 288 288 287 287 287 286 287 286 286 286 285 286 286 286 286 286 286 286 286 286 286 287 287
311 311 310 309 308 306 304 302 301 300 299 296 293 292 292 294 290 289 289 288 288 287 287 287 286 286 287 287 286 286 286 285 285 286 286 286 286 286 286 286 286 286 287
310 310 309 307 306 305 304 302 301 300 299 296 295 295 295 294 289 289 289 288 287 287 287 286 286 287 287 287 287 287 286 286 286 285 285 285 286 286 286 286 287 287 287
309 309 307 306 306 304 303 302 301 300 298 296 297 297 296 291 289 289 288 288 287 287 287 286 286 288 288 288 287 287 286 285 285 285 285 285 285 286 286 286 287 287 287
309 308 307 306 305 304 303 302 300 298 297 300 300 297 293 289 289 289 288 287 286 287 287 287 287 287 287 287 287 286 285 285 285 285 285 285 286 286 286 286 287 286 286

GFSGL_850_thetae_144.txt.gz
Theta_e
324 324 324 325 324 325 324 323 323 324 324 323 324 325 321 319 319 316 314 315 316 319 319 318 318 316 314 312 311 311 311 313 312 312 312 311 310 309 309 306 304 304 304
322 322 324 324 323 323 323 323 324 323 323 322 321 321 321 321 319 319 319 317 314 313 314 313 312 312 311 311 312 312 313 312 312 311 310 309 309 307 305 305 304 301 299
321 322 321 321 321 321 321 322 322 322 321 320 319 320 320 320 320 320 318 314 313 314 313 312 311 311 311 312 313 312 311 310 308 307 307 306 305 304 303 301 299 296 295
320 320 321 321 321 320 320 320 320 320 320 318 318 318 317 317 317 316 315 315 314 313 312 312 312 312 312 312 311 310 308 307 306 305 304 302 301 300 297 295 295 295 295
320 320 320 320 320 319 320 319 318 317 316 316 315 314 314 313 313 313 313 313 312 312 312 312 311 311 311 310 309 307 305 304 302 301 300 298 296 295 296 296 295 295 297
320 320 319 318 317 318 318 317 317 316 316 316 315 314 314 314 313 313 313 313 312 312 312 311 310 309 308 306 305 303 303 301 300 298 295 296 296 297 296 296 296 295 296
318 319 318 317 316 315 315 314 313 314 313 314 313 313 312 312 311 311 311 310 309 308 308 306 306 305 304 302 301 300 299 297 295 295 296 296 296 296 296 296 294 295 295
316 315 314 314 313 312 311 311 311 311 311 311 311 310 308 306 305 304 304 304 303 303 302 301 301 300 300 299 298 297 296 295 294 294 294 295 295 295 295 293 293 293 294
314 312 311 308 307 307 308 308 307 307 306 304 302 301 300 299 298 297 296 296 296 296 296 297 297 296 296 296 297 295 296 295 295 295 294 294 293 293 293 292 292 293 293
311 309 306 304 303 304 304 303 302 300 298 297 296 296 295 295 295 295 294 294 294 293 293 293 293 293 293 293 292 295 296 296 295 295 293 292 292 292 291 291 292 292 292
309 306 303 302 300 300 299 299 298 297 296 296 296 296 295 294 293 293 293 293 294 294 294 294 294 294 293 293 293 295 295 295 295 294 292 292 291 292 291 291 291 291 291
307 304 302 300 299 298 297 297 297 296 296 296 296 295 295 293 292 292 292 292 292 293 294 294 294 293 293 294 294 294 294 294 293 292 291 291 291 291 291 290 290 291 290
306 303 301 299 298 297 297 296 296 296 296 296 295 295 294 294 293 292 292 291 291 292 293 293 292 292 292 292 292 292 293 293 292 291 291 290 290 290 290 290 290 290 290
307 304 302 299 298 297 297 296 296 296 296 296 295 295 294 294 293 293 292 291 291 290 291 292 291 291 290 290 291 291 292 291 291 290 290 290 290 290 290 290 289 289 289
308 305 302 300 298 297 297 297 296 296 296 296 295 295 295 294 293 292 292 291 292 293 293 292 290 291 290 290 290 291 290 290 290 290 290 290 289 290 290 289 289 289 288
309 306 303 302 300 298 298 297 296 296 296 295 295 295 294 293 293 292 291 290 291 292 292 291 291 291 290 290 289 289 289 289 289 289 289 290 290 289 289 289 289 289 288
310 308 305 303 301 300 299 299 299 297 296 295 294 294 294 293 292 291 291 290 290 290 290 291 291 291 290 289 289 289 289 289 289 289 289 289 289 289 289 289 288 289 288
311 310 308 306 304 302 301 301 299 299 298 297 294 294 293 293 292 291 291 291 290 291 290 290 290 290 289 289 289 289 289 289 289 289 289 289 289 288 288 288 288 287 287
312 310 310 308 306 304 302 301 300 299 298 297 296 294 293 293 292 291 291 291 291 290 290 290 290 289 289 289 289 289 288 288 288 288 289 288 288 288 288 287 287 287 288
314 312 311 309 307 305 303 302 301 300 299 298 297 296 295 293 293 292 291 294 293 292 290 290 289 289 288 289 288 288 288 287 287 287 287 287 287 286 287 287 288 288 287
314 312 311 310 308 307 306 304 302 301 300 300 299 297 296 294 293 292 293 297 297 291 289 289 288 288 288 288 288 287 287 287 286 286 287 287 287 287 287 287 287 286 287
315 314 311 310 308 307 307 305 303 302 301 300 300 298 296 298 293 292 295 297 295 290 289 288 288 287 287 287 287 287 287 286 286 286 287 286 286 286 286 286 287 287 287
314 314 312 310 308 307 306 305 304 303 302 301 300 299 298 295 292 295 296 297 293 290 289 288 287 287 287 286 287 287 286 286 286 286 286 286 285 285 286 286 286 286 286
312 312 312 310 309 307 306 306 305 304 302 300 299 298 300 296 298 295 297 296 292 289 289 288 287 287 287 288 289 288 286 286 286 285 286 285 285 285 285 285 286 286 286
311 311 311 310 309 308 307 305 304 303 301 300 299 299 298 298 298 298 298 296 290 289 288 287 287 287 287 288 288 287 287 287 286 285 285 285 284 285 285 285 285 285 285
310 310 309 309 308 307 306 305 303 302 301 301 300 299 297 299 300 300 297 291 289 289 288 287 286 287 287 287 287 286 286 286 285 285 285 285 285 284 285 285 285 285 284

GFSGL_850_thetae_147.txt.gz
Theta_e
323 324 325 323 325 324 323 322 322 323 323 322 323 321 322 321 323 323 323 323 323 323 322 321 320 319 317 315 315 314 313 312 311 312 313 313 312 311 310 308 306 305 304
322 323 323 323 323 324 323 322 323 323 324 323 323 323 320 320 320 322 320 320 321 319 319 320 320 318 316 315 313 312 312 311 312 313 312 311 310 309 307 305 303 303 303
320 321 322 322 322 323 323 323 323 323 323 322 322 322 322 319 318 317 315 317 318 318 317 318 316 315 314 312 312 312 312 312 312 311 310 308 307 306 304 303 302 300 298
319 320 321 322 321 321 321 321 321 321 322 321 319 320 319 319 319 318 318 318 319 317 315 313 312 312 311 311 312 312 311 310 308 307 306 304 303 302 301 300 297 295 295
319 321 320 319 319 319 319 319 318 317 318 319 318 318 317 317 316 316 316 315 314 314 313 312 312 312 311 311 310 309 308 307 306 304 302 300 299 297 296 295 295 295 295
321 320 320 319 318 318 318 317 316 315 315 315 315 314 314 313 313 312 312 312 312 312 311 311 311 311 310 309 308 306 304 303 302 301 299 296 295 295 296 296 296 296 295
319 319 319 318 318 317 317 317 316 315 315 314 315 314 314 313 312 312 312 312 312 311 310 309 308 306 305 304 303 302 301 300 299 297 295 295 296 296 296 296 296 294 294
319 318 317 316 315 315 313 312 312 312 313 313 312 312 312 311 310 310 309 308 308 307 306 305 304 303 302 301 299 298 296 295 294 294 294 294 294 295 295 294 293 293 293
317 317 315 314 313 310 310 310 310 310 310 310 309 308 307 305 303 302 300 299 298 298 297 297 297 297 296 297 297 296 295 295 295 295 294 294 294 293 293 293 292 292 293
315 315 313 310 308 308 306 306 305 304 302 301 299 299 298 297 296 295 295 295 295 294 294 294 294 294 294 293 293 295 294 295 295 294 294 292 291 292 291 291 291 292 291
313 310 308 305 304 304 303 302 300 299 297 296 296 295 295 295 294 294 293 293 293 293 293 294 294 294 294 293 293 293 296 295 295 294 294 292 291 291 291 291 290 290 290
310 307 304 303 302 301 300 299 298 297 297 296 296 295 294 293 293 293 293 293 293 293 293 293 293 292 292 294 294 295 294 294 294 293 292 291 290 291 291 290 290 290 289
309 306 303 301 300 300 299 298 297 297 296 296 296 295 294 293 293 292 292 292 292 292 292 292 292 291 291 292 292 292 293 293 292 292 290 290 290 290 290 290 290 289 289
308 305 302 300 299 298 298 297 297 297 296 296 296 296 295 294 293 293 292 292 292 291 291 292 291 290 291 290 290 291 291 292 291 291 290 290 290 289 289 289 289 289 289
308 304 302 300 299 298 297 297 297 296 296 296 296 296 295 295 294 293 292 292 292 292 292 292 291 291 291 290 289 290 290 290 290 290 290 290 290 289 289 289 289 289 288
308 305 303 302 299 298 298 297 296 296 296 296 295 295 295 294 294 293 292 291 291 291 291 291 291 291 290 290 289 289 289 289 289 289 289 289 289 290 289 289 289 289 289
311 308 305 303 302 300 299 298 299 297 296 296 295 295 294 294 293 293 292 291 290 290 290 290 291 291 290 290 289 289 289 289 289 289 289 289 289 289 289 289 288 288 288
312 310 308 305 303 302 301 300 299 298 299 298 296 295 294 294 293 292 291 291 291 292 291 291 290 290 290 289 288 289 289 289 289 289 289 289 289 288 288 287 288 287 287
312 311 309 307 305 304 302 301 300 298 298 297 297 296 294 293 293 292 291 291 291 293 293 292 290 290 290 289 289 289 289 288 288 288 288 288 288 288 287 287 287 287 288
313 311 310 309 307 305 303 302 301 299 299 298 298 297 296 295 294 293 296 294 293 296 296 292 290 290 289 288 288 288 288 288 287 287 287 287 287 286 286 287 287 287 287
314 313 312 310 308 307 305 304 303 301 301 300 300 298 297 296 295 294 301 291 296 297 295 290 289 289 288 287 288 288 287 287 287 286 286 286 286 287 287 287 286 286 287
314 313 313 311 310 308 307 306 306 304 303 301 300 299 296 295 294 302 296 292 296 297 291 290 289 288 287 287 287 287 287 287 286 286 286 286 286 286 286 286 286 287 287
314 314 313 312 310 309 308 307 306 305 304 302 300 299 298 298 297 301 292 295 296 295 290 289 288 287 287 287 287 287 287 286 286 286 286 286 286 285 285 286 286 285 285
314 314 313 313 311 310 308 307 306 305 304 302 301 299 299 298 302 298 297 296 297 294 289 289 288 287 287 287 288 288 288 285 285 285 285 285 285 285 284 285 285 285 285
312 312 312 312 311 310 309 307 306 305 304 303 301 300 299 298 298 298 298 297 297 292 289 288 287 286 287 287 288 288 288 288 287 286 285 285 285 284 285 285 285 285 285
311 311 311 310 310 309 308 307 306 305 304 303 302 300 299 298 297 299 298 298 294 289 289 287 286 287 287 287 287 287 286 286 286 286 285 285 284 284 284 284 284 284 284